Wetterdaten: Mittwoch, 06.10.2021
Datum Zeit Temp. Aussen Temp. o. S. Temp +5cm Feuchte Auss Luftdruck Regen Sonnenschein Regendauer Solar Windben Empfang
06.10.2021 00:00 12,4 C 11,7 C 10,6 C 88 % 1008,6 hPa 0,0 l/m 0 min 0 min 0 W/m 16,1 km/h (3 Bft) 97,87 %
06.10.2021 00:02 12,4 C 11,7 C 10,6 C 88 % 1008,7 hPa 0,0 l/m 0 min 0 min 0 W/m 19,3 km/h (3 Bft) 95,35 %
06.10.2021 00:04 12,4 C 11,7 C 10,6 C 88 % 1008,6 hPa 0,0 l/m 0 min 0 min 0 W/m 16,1 km/h (3 Bft) 97,87 %
06.10.2021 00:07 12,4 C 11,7 C 10,6 C 88 % 1008,7 hPa 0,0 l/m 0 min 0 min 0 W/m 25,7 km/h (4 Bft) 95,77 %
06.10.2021 00:08 12,4 C 11,7 C 10,6 C 87 % 1008,7 hPa 0,0 l/m 0 min 0 min 0 W/m 16,1 km/h (3 Bft) 100,00 %
06.10.2021 00:10 12,4 C 11,7 C 10,6 C 87 % 1008,6 hPa 0,0 l/m 0 min 0 min 0 W/m 16,1 km/h (3 Bft) 93,62 %
06.10.2021 00:12 12,4 C 11,7 C 10,6 C 87 % 1008,7 hPa 0,0 l/m 0 min 0 min 0 W/m 16,1 km/h (3 Bft) 97,87 %
06.10.2021 00:14 12,4 C 11,7 C 10,6 C 87 % 1008,7 hPa 0,0 l/m 0 min 0 min 0 W/m 22,5 km/h (4 Bft) 100,00 %
06.10.2021 00:16 12,3 C 11,7 C 10,6 C 87 % 1008,7 hPa 0,0 l/m 0 min 0 min 0 W/m 19,3 km/h (3 Bft) 93,62 %
06.10.2021 00:18 12,3 C 11,7 C 10,6 C 87 % 1008,8 hPa 0,0 l/m 0 min 0 min 0 W/m 12,9 km/h (3 Bft) 97,87 %
06.10.2021 00:20 12,3 C 11,7 C 10,6 C 87 % 1008,8 hPa 0,0 l/m 0 min 0 min 0 W/m 16,1 km/h (3 Bft) 97,87 %
06.10.2021 00:22 12,3 C 11,7 C 10,6 C 87 % 1008,7 hPa 0,0 l/m 0 min 0 min 0 W/m 22,5 km/h (4 Bft) 95,74 %
06.10.2021 00:24 12,3 C 11,7 C 10,6 C 87 % 1008,8 hPa 0,0 l/m 0 min 0 min 0 W/m 19,3 km/h (3 Bft) 97,87 %
06.10.2021 00:26 12,3 C 11,7 C 10,6 C 87 % 1008,8 hPa 0,0 l/m 0 min 0 min 0 W/m 19,3 km/h (3 Bft) 93,48 %
06.10.2021 00:28 12,3 C 11,7 C 10,6 C 87 % 1008,8 hPa 0,0 l/m 0 min 0 min 0 W/m 12,9 km/h (3 Bft) 95,74 %
06.10.2021 00:30 12,3 C 11,7 C 10,6 C 87 % 1008,8 hPa 0,0 l/m 0 min 0 min 0 W/m 22,5 km/h (4 Bft) 95,74 %
06.10.2021 00:32 12,3 C 11,7 C 10,6 C 87 % 1008,9 hPa 0,0 l/m 0 min 0 min 0 W/m 19,3 km/h (3 Bft) 91,49 %
06.10.2021 00:34 12,3 C 11,7 C 10,6 C 87 % 1008,9 hPa 0,0 l/m 0 min 0 min 0 W/m 22,5 km/h (4 Bft) 95,74 %
06.10.2021 00:36 12,3 C 11,7 C 10,6 C 87 % 1008,9 hPa 0,0 l/m 0 min 0 min 0 W/m 32,2 km/h (5 Bft) 95,74 %
06.10.2021 00:38 12,2 C 11,7 C 10,6 C 87 % 1008,9 hPa 0,0 l/m 0 min 0 min 0 W/m 19,3 km/h (3 Bft) 95,65 %
06.10.2021 00:40 12,2 C 11,7 C 10,6 C 88 % 1009,0 hPa 0,0 l/m 0 min 0 min 0 W/m 19,3 km/h (3 Bft) 93,62 %
06.10.2021 00:42 12,1 C 11,7 C 10,6 C 88 % 1008,9 hPa 0,0 l/m 0 min 0 min 0 W/m 16,1 km/h (3 Bft) 95,74 %
06.10.2021 00:44 12,1 C 11,7 C 10,6 C 88 % 1009,0 hPa 0,0 l/m 0 min 0 min 0 W/m 22,5 km/h (4 Bft) 95,74 %
06.10.2021 00:46 12,1 C 11,7 C 10,6 C 88 % 1009,0 hPa 0,0 l/m 0 min 0 min 0 W/m 16,1 km/h (3 Bft) 93,62 %
06.10.2021 00:48 12,1 C 11,7 C 10,6 C 88 % 1008,9 hPa 0,0 l/m 0 min 0 min 0 W/m 12,9 km/h (3 Bft) 93,62 %
06.10.2021 00:50 12,1 C 11,7 C 10,6 C 88 % 1008,9 hPa 0,0 l/m 0 min 0 min 0 W/m 19,3 km/h (3 Bft) 91,49 %
06.10.2021 00:52 12,1 C 11,1 C 10,6 C 88 % 1009,0 hPa 0,0 l/m 0 min 0 min 0 W/m 16,1 km/h (3 Bft) 93,48 %
06.10.2021 00:54 12,1 C 11,1 C 10,6 C 88 % 1009,0 hPa 0,0 l/m 0 min 0 min 0 W/m 16,1 km/h (3 Bft) 95,74 %
06.10.2021 00:56 12,0 C 11,1 C 10,6 C 88 % 1009,0 hPa 0,0 l/m 0 min 0 min 0 W/m 22,5 km/h (4 Bft) 93,62 %
06.10.2021 00:58 12,0 C 11,1 C 10,6 C 88 % 1009,0 hPa 0,0 l/m 0 min 0 min 0 W/m 16,1 km/h (3 Bft) 95,74 %
06.10.2021 01:00 12,0 C 11,1 C 10,6 C 88 % 1009,1 hPa 0,0 l/m 0 min 0 min 0 W/m 19,3 km/h (3 Bft) 93,62 %
06.10.2021 01:02 11,9 C 11,1 C 10,6 C 88 % 1009,2 hPa 0,0 l/m 0 min 0 min 0 W/m 22,5 km/h (4 Bft) 95,65 %
06.10.2021 01:04 11,9 C 11,1 C 10,6 C 89 % 1009,2 hPa 0,0 l/m 0 min 0 min 0 W/m 19,3 km/h (3 Bft) 93,62 %
06.10.2021 01:06 11,9 C 11,1 C 10,6 C 89 % 1009,2 hPa 0,0 l/m 0 min 0 min 0 W/m 25,7 km/h (4 Bft) 93,62 %
06.10.2021 01:08 11,9 C 11,1 C 10,6 C 89 % 1009,2 hPa 0,0 l/m 0 min 0 min 0 W/m 32,2 km/h (5 Bft) 93,62 %
06.10.2021 01:10 11,8 C 11,1 C 10,0 C 89 % 1009,1 hPa 0,0 l/m 0 min 0 min 0 W/m 16,1 km/h (3 Bft) 97,87 %
06.10.2021 01:12 11,8 C 11,1 C 10,0 C 89 % 1009,3 hPa 0,0 l/m 0 min 0 min 0 W/m 19,3 km/h (3 Bft) 100,00 %
06.10.2021 01:14 11,8 C 11,1 C 10,0 C 89 % 1009,2 hPa 0,0 l/m 0 min 0 min 0 W/m 19,3 km/h (3 Bft) 100,00 %
06.10.2021 01:16 11,8 C 11,1 C 10,0 C 89 % 1009,2 hPa 0,0 l/m 0 min 0 min 0 W/m 16,1 km/h (3 Bft) 100,00 %
06.10.2021 01:18 11,7 C 11,1 C 10,0 C 89 % 1009,2 hPa 0,0 l/m 0 min 0 min 0 W/m 12,9 km/h (3 Bft) 97,87 %
06.10.2021 01:20 11,7 C 10,6 C 10,0 C 89 % 1009,4 hPa 0,0 l/m 0 min 0 min 0 W/m 19,3 km/h (3 Bft) 100,00 %
06.10.2021 01:22 11,6 C 11,1 C 10,0 C 89 % 1009,3 hPa 0,0 l/m 0 min 0 min 0 W/m 16,1 km/h (3 Bft) 100,00 %
06.10.2021 01:24 11,6 C 10,6 C 10,0 C 89 % 1009,4 hPa 0,0 l/m 0 min 0 min 0 W/m 38,6 km/h (5 Bft) 100,00 %
06.10.2021 01:26 11,6 C 11,1 C 10,0 C 89 % 1009,4 hPa 0,0 l/m 0 min 0 min 0 W/m 22,5 km/h (4 Bft) 97,87 %
06.10.2021 01:28 11,6 C 11,1 C 10,0 C 89 % 1009,4 hPa 0,0 l/m 0 min 0 min 0 W/m 19,3 km/h (3 Bft) 100,00 %
06.10.2021 01:30 11,6 C 11,1 C 10,0 C 89 % 1009,5 hPa 0,0 l/m 0 min 0 min 0 W/m 32,2 km/h (5 Bft) 97,87 %
06.10.2021 01:32 11,5 C 11,1 C 10,0 C 89 % 1009,4 hPa 0,0 l/m 0 min 0 min 0 W/m 22,5 km/h (4 Bft) 100,00 %
06.10.2021 01:34 11,5 C 11,1 C 10,0 C 89 % 1009,4 hPa 0,0 l/m 0 min 0 min 0 W/m 25,7 km/h (4 Bft) 100,00 %
06.10.2021 01:36 11,5 C 10,6 C 10,0 C 89 % 1009,5 hPa 0,0 l/m 0 min 0 min 0 W/m 25,7 km/h (4 Bft) 100,00 %
06.10.2021 01:38 11,5 C 11,1 C 10,0 C 89 % 1009,5 hPa 0,0 l/m 0 min 0 min 0 W/m 29,0 km/h (5 Bft) 97,87 %
06.10.2021 01:40 11,5 C 11,1 C 10,0 C 89 % 1009,6 hPa 0,0 l/m 0 min 0 min 0 W/m 25,7 km/h (4 Bft) 95,74 %
06.10.2021 01:42 11,5 C 11,1 C 10,0 C 89 % 1009,6 hPa 0,0 l/m 0 min 0 min 0 W/m 29,0 km/h (5 Bft) 97,87 %
06.10.2021 01:44 11,5 C 11,1 C 10,0 C 89 % 1009,6 hPa 0,0 l/m 0 min 0 min 0 W/m 25,7 km/h (4 Bft) 97,87 %
06.10.2021 01:46 11,5 C 10,6 C 10,0 C 89 % 1009,6 hPa 0,0 l/m 0 min 0 min 0 W/m 12,9 km/h (3 Bft) 95,74 %
06.10.2021 01:48 11,5 C 10,6 C 10,0 C 89 % 1009,7 hPa 0,0 l/m 0 min 0 min 0 W/m 16,1 km/h (3 Bft) 93,48 %
06.10.2021 01:50 11,5 C 10,6 C 10,0 C 89 % 1009,8 hPa 0,0 l/m 0 min 0 min 0 W/m 19,3 km/h (3 Bft) 97,87 %
06.10.2021 01:52 11,5 C 10,6 C 10,0 C 89 % 1009,7 hPa 0,0 l/m 0 min 0 min 0 W/m 25,7 km/h (4 Bft) 97,87 %
06.10.2021 01:54 11,5 C 10,6 C 10,0 C 89 % 1009,7 hPa 0,0 l/m 0 min 0 min 0 W/m 25,7 km/h (4 Bft) 97,87 %
06.10.2021 01:56 11,5 C 10,6 C 10,0 C 89 % 1009,7 hPa 0,0 l/m 0 min 0 min 0 W/m 12,9 km/h (3 Bft) 97,87 %
06.10.2021 01:58 11,4 C 10,6 C 10,0 C 89 % 1009,8 hPa 0,0 l/m 0 min 0 min 0 W/m 19,3 km/h (3 Bft) 97,87 %
06.10.2021 02:00 11,4 C 10,6 C 10,0 C 89 % 1009,8 hPa 0,0 l/m 0 min 0 min 0 W/m 12,9 km/h (3 Bft) 97,83 %
06.10.2021 02:02 11,4 C 10,6 C 10,0 C 89 % 1009,8 hPa 0,0 l/m 0 min 0 min 0 W/m 19,3 km/h (3 Bft) 97,87 %
06.10.2021 02:04 11,4 C 10,6 C 10,0 C 89 % 1010,0 hPa 0,0 l/m 0 min 0 min 0 W/m 19,3 km/h (3 Bft) 97,87 %
06.10.2021 02:06 11,4 C 10,6 C 10,0 C 89 % 1009,9 hPa 0,0 l/m 0 min 0 min 0 W/m 25,7 km/h (4 Bft) 97,87 %
06.10.2021 02:08 11,4 C 10,6 C 10,0 C 89 % 1009,9 hPa 0,0 l/m 0 min 0 min 0 W/m 29,0 km/h (5 Bft) 100,00 %
06.10.2021 02:10 11,4 C 10,6 C 10,0 C 89 % 1009,9 hPa 0,0 l/m 0 min 0 min 0 W/m 16,1 km/h (3 Bft) 100,00 %
06.10.2021 02:12 11,4 C 10,6 C 10,0 C 89 % 1009,9 hPa 0,0 l/m 0 min 0 min 0 W/m 25,7 km/h (4 Bft) 100,00 %
06.10.2021 02:14 11,4 C 10,6 C 10,0 C 89 % 1009,9 hPa 0,0 l/m 0 min 0 min 0 W/m 25,7 km/h (4 Bft) 100,00 %
06.10.2021 02:16 11,3 C 10,6 C 10,0 C 89 % 1009,9 hPa 0,0 l/m 0 min 0 min 0 W/m 29,0 km/h (5 Bft) 100,00 %
06.10.2021 02:18 11,3 C 10,6 C 10,0 C 89 % 1009,9 hPa 0,0 l/m 0 min 0 min 0 W/m 25,7 km/h (4 Bft) 100,00 %
06.10.2021 02:20 11,3 C 10,6 C 10,0 C 89 % 1009,9 hPa 0,0 l/m 0 min 0 min 0 W/m 19,3 km/h (3 Bft) 100,00 %
06.10.2021 02:22 11,3 C 10,6 C 10,0 C 89 % 1009,9 hPa 0,0 l/m 0 min 0 min 0 W/m 19,3 km/h (3 Bft) 100,00 %
06.10.2021 02:24 11,3 C 10,6 C 9,5 C 89 % 1009,9 hPa 0,0 l/m 0 min 0 min 0 W/m 19,3 km/h (3 Bft) 100,00 %
06.10.2021 02:26 11,3 C 10,6 C 9,5 C 89 % 1009,9 hPa 0,0 l/m 0 min 0 min 0 W/m 16,1 km/h (3 Bft) 100,00 %
06.10.2021 02:28 11,2 C 10,6 C 9,5 C 89 % 1009,9 hPa 0,0 l/m 0 min 0 min 0 W/m 25,7 km/h (4 Bft) 95,74 %
06.10.2021 02:30 11,2 C 10,6 C 9,5 C 89 % 1009,9 hPa 0,0 l/m 0 min 0 min 0 W/m 16,1 km/h (3 Bft) 100,00 %
06.10.2021 02:32 11,1 C 10,6 C 9,5 C 89 % 1010,0 hPa 0,0 l/m 0 min 0 min 0 W/m 12,9 km/h (3 Bft) 100,00 %
06.10.2021 02:34 11,1 C 10,6 C 9,5 C 89 % 1010,0 hPa 0,0 l/m 0 min 0 min 0 W/m 19,3 km/h (3 Bft) 100,00 %
06.10.2021 02:36 11,1 C 10,6 C 9,5 C 89 % 1010,1 hPa 0,0 l/m 0 min 0 min 0 W/m 19,3 km/h (3 Bft) 100,00 %
06.10.2021 02:38 11,1 C 10,0 C 9,5 C 89 % 1010,1 hPa 0,0 l/m 0 min 0 min 0 W/m 19,3 km/h (3 Bft) 100,00 %
06.10.2021 02:40 11,0 C 10,0 C 9,5 C 89 % 1010,0 hPa 0,0 l/m 0 min 0 min 0 W/m 29,0 km/h (5 Bft) 100,00 %
06.10.2021 02:42 11,0 C 10,6 C 9,5 C 89 % 1010,1 hPa 0,0 l/m 0 min 0 min 0 W/m 38,6 km/h (5 Bft) 97,87 %
06.10.2021 02:44 11,0 C 10,6 C 9,5 C 89 % 1010,1 hPa 0,0 l/m 0 min 0 min 0 W/m 19,3 km/h (3 Bft) 100,00 %
06.10.2021 02:46 11,0 C 10,6 C 9,5 C 89 % 1010,1 hPa 0,0 l/m 0 min 0 min 0 W/m 22,5 km/h (4 Bft) 100,00 %
06.10.2021 02:48 11,0 C 10,6 C 9,5 C 89 % 1010,1 hPa 0,0 l/m 0 min 0 min 0 W/m 22,5 km/h (4 Bft) 100,00 %
06.10.2021 02:50 11,0 C 10,6 C 9,5 C 89 % 1010,1 hPa 0,0 l/m 0 min 0 min 0 W/m 38,6 km/h (5 Bft) 100,00 %
06.10.2021 02:52 11,0 C 10,6 C 9,5 C 89 % 1010,1 hPa 0,0 l/m 0 min 0 min 0 W/m 32,2 km/h (5 Bft) 97,87 %
06.10.2021 02:54 11,0 C 10,6 C 9,5 C 89 % 1010,1 hPa 0,0 l/m 0 min 0 min 0 W/m 29,0 km/h (5 Bft) 100,00 %
06.10.2021 02:56 11,0 C 10,6 C 9,5 C 89 % 1010,2 hPa 0,0 l/m 0 min 0 min 0 W/m 16,1 km/h (3 Bft) 100,00 %
06.10.2021 02:58 11,1 C 10,6 C 9,5 C 89 % 1010,2 hPa 0,0 l/m 0 min 0 min 0 W/m 25,7 km/h (4 Bft) 100,00 %
06.10.2021 03:00 11,1 C 10,6 C 9,5 C 89 % 1010,2 hPa 0,0 l/m 0 min 0 min 0 W/m 22,5 km/h (4 Bft) 100,00 %
06.10.2021 03:02 11,1 C 10,6 C 9,5 C 89 % 1010,2 hPa 0,0 l/m 0 min 0 min 0 W/m 29,0 km/h (5 Bft) 95,74 %
06.10.2021 03:04 11,1 C 10,6 C 9,5 C 89 % 1010,2 hPa 0,0 l/m 0 min 0 min 0 W/m 29,0 km/h (5 Bft) 100,00 %
06.10.2021 03:06 11,1 C 10,6 C 10,0 C 89 % 1010,4 hPa 0,0 l/m 0 min 0 min 0 W/m 25,7 km/h (4 Bft) 97,87 %
06.10.2021 03:08 11,1 C 10,6 C 10,0 C 89 % 1010,2 hPa 0,0 l/m 0 min 0 min 0 W/m 16,1 km/h (3 Bft) 97,87 %
06.10.2021 03:10 11,1 C 10,6 C 10,0 C 89 % 1010,1 hPa 0,0 l/m 0 min 0 min 0 W/m 29,0 km/h (5 Bft) 97,83 %
06.10.2021 03:12 11,1 C 10,6 C 10,0 C 89 % 1010,2 hPa 0,0 l/m 0 min 0 min 0 W/m 38,6 km/h (5 Bft) 97,87 %
06.10.2021 03:14 11,1 C 10,6 C 10,0 C 89 % 1010,2 hPa 0,0 l/m 0 min 0 min 0 W/m 25,7 km/h (4 Bft) 95,74 %
06.10.2021 03:16 11,1 C 10,6 C 10,0 C 89 % 1010,2 hPa 0,0 l/m 0 min 0 min 0 W/m 29,0 km/h (5 Bft) 97,87 %
06.10.2021 03:18 11,2 C 10,6 C 10,0 C 89 % 1010,2 hPa 0,0 l/m 0 min 0 min 0 W/m 25,7 km/h (4 Bft) 95,74 %
06.10.2021 03:20 11,2 C 10,6 C 10,0 C 89 % 1010,2 hPa 0,0 l/m 0 min 0 min 0 W/m 16,1 km/h (3 Bft) 95,74 %
06.10.2021 03:22 11,2 C 10,6 C 10,0 C 89 % 1010,3 hPa 0,0 l/m 0 min 0 min 0 W/m 25,7 km/h (4 Bft) 91,49 %
06.10.2021 03:24 11,2 C 10,6 C 10,0 C 89 % 1010,2 hPa 0,0 l/m 0 min 0 min 0 W/m 22,5 km/h (4 Bft) 95,65 %
06.10.2021 03:26 11,2 C 10,6 C 10,0 C 89 % 1010,3 hPa 0,0 l/m 0 min 0 min 0 W/m 25,7 km/h (4 Bft) 95,74 %
06.10.2021 03:28 11,2 C 10,6 C 10,0 C 89 % 1010,3 hPa 0,0 l/m 0 min 0 min 0 W/m 22,5 km/h (4 Bft) 93,62 %
06.10.2021 03:30 11,3 C 10,6 C 10,0 C 89 % 1010,2 hPa 0,0 l/m 0 min 0 min 0 W/m 25,7 km/h (4 Bft) 95,74 %
06.10.2021 03:32 11,3 C 10,6 C 10,0 C 89 % 1010,4 hPa 0,0 l/m 0 min 0 min 0 W/m 25,7 km/h (4 Bft) 91,49 %
06.10.2021 03:34 11,3 C 10,6 C 10,0 C 89 % 1010,3 hPa 0,0 l/m 0 min 0 min 0 W/m 22,5 km/h (4 Bft) 95,74 %
06.10.2021 03:36 11,3 C 10,6 C 10,0 C 89 % 1010,5 hPa 0,0 l/m 0 min 0 min 0 W/m 25,7 km/h (4 Bft) 91,30 %
06.10.2021 03:38 11,4 C 10,6 C 10,0 C 88 % 1010,3 hPa 0,0 l/m 0 min 0 min 0 W/m 16,1 km/h (3 Bft) 91,49 %
06.10.2021 03:40 11,4 C 10,6 C 10,0 C 88 % 1010,3 hPa 0,0 l/m 0 min 0 min 0 W/m 22,5 km/h (4 Bft) 93,62 %
06.10.2021 03:42 11,4 C 10,6 C 10,0 C 88 % 1010,3 hPa 0,0 l/m 0 min 0 min 0 W/m 22,5 km/h (4 Bft) 93,62 %
06.10.2021 03:44 11,4 C 10,6 C 10,0 C 88 % 1010,3 hPa 0,0 l/m 0 min 0 min 0 W/m 19,3 km/h (3 Bft) 91,49 %
06.10.2021 03:46 11,4 C 11,1 C 10,0 C 88 % 1010,3 hPa 0,0 l/m 0 min 0 min 0 W/m 29,0 km/h (5 Bft) 91,30 %
06.10.2021 03:48 11,5 C 11,1 C 10,0 C 88 % 1010,3 hPa 0,0 l/m 0 min 0 min 0 W/m 41,8 km/h (6 Bft) 93,62 %
06.10.2021 03:50 11,5 C 11,1 C 10,0 C 88 % 1010,5 hPa 0,0 l/m 0 min 0 min 0 W/m 22,5 km/h (4 Bft) 93,62 %
06.10.2021 03:52 11,5 C 11,1 C 10,0 C 88 % 1010,3 hPa 0,0 l/m 0 min 0 min 0 W/m 25,7 km/h (4 Bft) 93,62 %
06.10.2021 03:54 11,5 C 11,1 C 10,0 C 87 % 1010,5 hPa 0,0 l/m 0 min 0 min 0 W/m 35,4 km/h (5 Bft) 95,74 %
06.10.2021 03:56 11,6 C 11,1 C 10,0 C 87 % 1010,4 hPa 0,0 l/m 0 min 0 min 0 W/m 19,3 km/h (3 Bft) 93,62 %
06.10.2021 03:58 11,6 C 11,1 C 10,0 C 87 % 1010,3 hPa 0,0 l/m 0 min 0 min 0 W/m 22,5 km/h (4 Bft) 95,65 %
06.10.2021 04:00 11,6 C 11,1 C 10,0 C 87 % 1010,4 hPa 0,0 l/m 0 min 0 min 0 W/m 19,3 km/h (3 Bft) 95,74 %
06.10.2021 04:02 11,6 C 11,1 C 10,0 C 87 % 1010,4 hPa 0,0 l/m 0 min 0 min 0 W/m 38,6 km/h (5 Bft) 100,00 %
06.10.2021 04:04 11,6 C 11,1 C 10,0 C 87 % 1010,4 hPa 0,0 l/m 0 min 0 min 0 W/m 25,7 km/h (4 Bft) 93,62 %
06.10.2021 04:06 11,6 C 11,1 C 10,0 C 87 % 1010,4 hPa 0,0 l/m 0 min 0 min 0 W/m 29,0 km/h (5 Bft) 97,87 %
06.10.2021 04:08 11,5 C 10,6 C 10,0 C 87 % 1010,5 hPa 0,0 l/m 0 min 0 min 0 W/m 32,2 km/h (5 Bft) 100,00 %
06.10.2021 04:10 11,5 C 10,6 C 10,0 C 87 % 1010,5 hPa 0,0 l/m 0 min 0 min 0 W/m 32,2 km/h (5 Bft) 97,83 %
06.10.2021 04:12 11,5 C 10,6 C 10,0 C 87 % 1010,4 hPa 0,0 l/m 0 min 0 min 0 W/m 22,5 km/h (4 Bft) 100,00 %
06.10.2021 04:14 11,5 C 10,6 C 10,0 C 87 % 1010,6 hPa 0,0 l/m 0 min 0 min 0 W/m 22,5 km/h (4 Bft) 100,00 %
06.10.2021 04:16 11,5 C 10,6 C 10,0 C 87 % 1010,5 hPa 0,0 l/m 0 min 0 min 0 W/m 25,7 km/h (4 Bft) 97,87 %
06.10.2021 04:18 11,5 C 10,6 C 10,0 C 87 % 1010,4 hPa 0,0 l/m 0 min 0 min 0 W/m 19,3 km/h (3 Bft) 97,87 %
06.10.2021 04:20 11,5 C 10,6 C 10,0 C 87 % 1010,5 hPa 0,0 l/m 0 min 0 min 0 W/m 25,7 km/h (4 Bft) 100,00 %
06.10.2021 04:22 11,4 C 10,6 C 10,0 C 87 % 1010,4 hPa 0,0 l/m 0 min 0 min 0 W/m 19,3 km/h (3 Bft) 100,00 %
06.10.2021 04:24 11,4 C 10,6 C 10,0 C 88 % 1010,4 hPa 0,0 l/m 0 min 0 min 0 W/m 22,5 km/h (4 Bft) 100,00 %
06.10.2021 04:26 11,4 C 10,6 C 10,0 C 88 % 1010,4 hPa 0,0 l/m 0 min 0 min 0 W/m 19,3 km/h (3 Bft) 97,87 %
06.10.2021 04:28 11,4 C 10,6 C 10,0 C 88 % 1010,4 hPa 0,0 l/m 0 min 0 min 0 W/m 25,7 km/h (4 Bft) 100,00 %
06.10.2021 04:30 11,3 C 10,6 C 9,5 C 88 % 1010,5 hPa 0,0 l/m 0 min 0 min 0 W/m 16,1 km/h (3 Bft) 100,00 %
06.10.2021 04:32 11,3 C 10,6 C 9,5 C 88 % 1010,5 hPa 0,0 l/m 0 min 0 min 0 W/m 32,2 km/h (5 Bft) 100,00 %
06.10.2021 04:34 11,3 C 10,6 C 9,5 C 88 % 1010,4 hPa 0,0 l/m 0 min 0 min 0 W/m 25,7 km/h (4 Bft) 100,00 %
06.10.2021 04:36 11,2 C 10,6 C 9,5 C 88 % 1010,5 hPa 0,0 l/m 0 min 0 min 0 W/m 25,7 km/h (4 Bft) 100,00 %
06.10.2021 04:38 11,2 C 10,6 C 9,5 C 88 % 1010,5 hPa 0,0 l/m 0 min 0 min 0 W/m 25,7 km/h (4 Bft) 97,87 %
06.10.2021 04:40 11,2 C 10,6 C 9,5 C 88 % 1010,5 hPa 0,0 l/m 0 min 0 min 0 W/m 29,0 km/h (5 Bft) 100,00 %
06.10.2021 04:42 11,2 C 10,6 C 9,5 C 88 % 1010,5 hPa 0,0 l/m 0 min 0 min 0 W/m 22,5 km/h (4 Bft) 100,00 %
06.10.2021 04:44 11,2 C 10,6 C 9,5 C 88 % 1010,6 hPa 0,0 l/m 0 min 0 min 0 W/m 32,2 km/h (5 Bft) 97,87 %
06.10.2021 04:46 11,1 C 10,6 C 9,5 C 88 % 1010,5 hPa 0,0 l/m 0 min 0 min 0 W/m 12,9 km/h (3 Bft) 100,00 %
06.10.2021 04:48 11,1 C 10,6 C 9,5 C 88 % 1010,6 hPa 0,0 l/m 0 min 0 min 0 W/m 29,0 km/h (5 Bft) 100,00 %
06.10.2021 04:50 11,1 C 10,6 C 9,5 C 88 % 1010,6 hPa 0,0 l/m 0 min 0 min 0 W/m 22,5 km/h (4 Bft) 100,00 %
06.10.2021 04:52 11,1 C 10,6 C 9,5 C 88 % 1010,5 hPa 0,0 l/m 0 min 0 min 0 W/m 25,7 km/h (4 Bft) 100,00 %
06.10.2021 04:54 11,1 C 10,6 C 9,5 C 88 % 1010,7 hPa 0,0 l/m 0 min 0 min 0 W/m 29,0 km/h (5 Bft) 97,87 %
06.10.2021 04:56 11,1 C 10,6 C 9,5 C 88 % 1010,5 hPa 0,0 l/m 0 min 0 min 0 W/m 29,0 km/h (5 Bft) 100,00 %
06.10.2021 04:58 11,1 C 10,6 C 9,5 C 88 % 1010,6 hPa 0,0 l/m 0 min 0 min 0 W/m 19,3 km/h (3 Bft) 100,00 %
06.10.2021 05:00 11,1 C 10,6 C 9,5 C 88 % 1010,5 hPa 0,0 l/m 0 min 0 min 0 W/m 22,5 km/h (4 Bft) 100,00 %
06.10.2021 05:02 11,1 C 10,6 C 9,5 C 88 % 1010,5 hPa 0,0 l/m 0 min 0 min 0 W/m 32,2 km/h (5 Bft) 100,00 %
06.10.2021 05:04 11,1 C 10,6 C 9,5 C 88 % 1010,5 hPa 0,0 l/m 0 min 0 min 0 W/m 29,0 km/h (5 Bft) 100,00 %
06.10.2021 05:06 11,1 C 10,6 C 9,5 C 88 % 1010,5 hPa 0,0 l/m 0 min 0 min 0 W/m 35,4 km/h (5 Bft) 100,00 %
06.10.2021 05:08 11,1 C 10,6 C 9,5 C 88 % 1010,6 hPa 0,0 l/m 0 min 0 min 0 W/m 22,5 km/h (4 Bft) 97,87 %
06.10.2021 05:10 11,1 C 10,6 C 9,5 C 88 % 1010,6 hPa 0,0 l/m 0 min 0 min 0 W/m 19,3 km/h (3 Bft) 100,00 %
06.10.2021 05:12 11,1 C 10,6 C 9,5 C 88 % 1010,5 hPa 0,0 l/m 0 min 0 min 0 W/m 19,3 km/h (3 Bft) 95,74 %
06.10.2021 05:14 11,1 C 10,6 C 9,5 C 88 % 1010,5 hPa 0,0 l/m 0 min 0 min 0 W/m 22,5 km/h (4 Bft) 100,00 %
06.10.2021 05:16 11,1 C 10,6 C 9,5 C 88 % 1010,6 hPa 0,0 l/m 0 min 0 min 0 W/m 25,7 km/h (4 Bft) 97,87 %
06.10.2021 05:18 11,1 C 10,6 C 9,5 C 88 % 1010,7 hPa 0,0 l/m 0 min 0 min 0 W/m 25,7 km/h (4 Bft) 100,00 %
06.10.2021 05:20 11,1 C 10,6 C 10,0 C 88 % 1010,6 hPa 0,0 l/m 0 min 0 min 0 W/m 41,8 km/h (6 Bft) 95,74 %
06.10.2021 05:22 11,1 C 10,6 C 10,0 C 88 % 1010,7 hPa 0,0 l/m 0 min 0 min 0 W/m 35,4 km/h (5 Bft) 97,83 %
06.10.2021 05:24 11,2 C 10,6 C 10,0 C 88 % 1010,7 hPa 0,0 l/m 0 min 0 min 0 W/m 51,5 km/h (7 Bft) 100,00 %
06.10.2021 05:26 11,2 C 10,6 C 10,0 C 88 % 1010,6 hPa 0,0 l/m 0 min 0 min 0 W/m 29,0 km/h (5 Bft) 100,00 %
06.10.2021 05:28 11,2 C 10,6 C 10,0 C 88 % 1010,7 hPa 0,0 l/m 0 min 0 min 0 W/m 35,4 km/h (5 Bft) 100,00 %
06.10.2021 05:30 11,3 C 10,6 C 10,0 C 88 % 1010,7 hPa 0,0 l/m 0 min 0 min 0 W/m 25,7 km/h (4 Bft) 97,87 %
06.10.2021 05:32 11,3 C 10,6 C 10,0 C 88 % 1010,6 hPa 0,0 l/m 0 min 0 min 0 W/m 35,4 km/h (5 Bft) 97,83 %
06.10.2021 05:34 11,3 C 10,6 C 10,0 C 88 % 1010,6 hPa 0,0 l/m 0 min 0 min 0 W/m 22,5 km/h (4 Bft) 95,74 %
06.10.2021 05:36 11,3 C 10,6 C 10,0 C 88 % 1010,6 hPa 0,0 l/m 0 min 0 min 0 W/m 29,0 km/h (5 Bft) 97,87 %
06.10.2021 05:38 11,3 C 10,6 C 10,0 C 88 % 1010,6 hPa 0,0 l/m 0 min 0 min 0 W/m 16,1 km/h (3 Bft) 95,74 %
06.10.2021 05:40 11,3 C 10,6 C 10,0 C 88 % 1010,8 hPa 0,0 l/m 0 min 0 min 0 W/m 22,5 km/h (4 Bft) 95,74 %
06.10.2021 05:42 11,3 C 10,6 C 10,0 C 88 % 1010,8 hPa 0,0 l/m 0 min 0 min 0 W/m 35,4 km/h (5 Bft) 97,87 %
06.10.2021 05:44 11,3 C 10,6 C 10,0 C 88 % 1010,8 hPa 0,0 l/m 0 min 0 min 0 W/m 35,4 km/h (5 Bft) 97,83 %
06.10.2021 05:46 11,3 C 10,6 C 10,0 C 87 % 1010,8 hPa 0,0 l/m 0 min 0 min 0 W/m 35,4 km/h (5 Bft) 97,87 %
06.10.2021 05:48 11,3 C 10,6 C 10,0 C 87 % 1011,0 hPa 0,0 l/m 0 min 0 min 0 W/m 25,7 km/h (4 Bft) 95,74 %
06.10.2021 05:50 11,4 C 10,6 C 10,0 C 87 % 1010,9 hPa 0,0 l/m 0 min 0 min 0 W/m 35,4 km/h (5 Bft) 97,87 %
06.10.2021 05:52 11,4 C 10,6 C 10,0 C 87 % 1010,8 hPa 0,0 l/m 0 min 0 min 0 W/m 29,0 km/h (5 Bft) 95,74 %
06.10.2021 05:54 11,4 C 10,6 C 10,0 C 87 % 1010,8 hPa 0,0 l/m 0 min 0 min 0 W/m 25,7 km/h (4 Bft) 95,74 %
06.10.2021 05:56 11,4 C 10,6 C 10,0 C 87 % 1010,8 hPa 0,0 l/m 0 min 0 min 0 W/m 22,5 km/h (4 Bft) 93,62 %
06.10.2021 05:58 11,4 C 10,6 C 10,0 C 87 % 1010,9 hPa 0,0 l/m 0 min 0 min 0 W/m 35,4 km/h (5 Bft) 95,65 %
06.10.2021 06:00 11,4 C 10,6 C 10,0 C 87 % 1010,9 hPa 0,0 l/m 0 min 0 min 0 W/m 16,1 km/h (3 Bft) 95,74 %
06.10.2021 06:02 11,4 C 10,6 C 10,0 C 87 % 1011,0 hPa 0,0 l/m 0 min 0 min 0 W/m 32,2 km/h (5 Bft) 95,74 %
06.10.2021 06:04 11,4 C 10,6 C 10,0 C 87 % 1010,9 hPa 0,0 l/m 0 min 0 min 0 W/m 35,4 km/h (5 Bft) 97,87 %
06.10.2021 06:08 11,4 C 10,6 C 10,0 C 87 % 1010,9 hPa 0,0 l/m 0 min 0 min 0 W/m 22,5 km/h (4 Bft) 96,91 %
06.10.2021 06:10 11,4 C 10,6 C 10,0 C 87 % 1010,9 hPa 0,0 l/m 0 min 0 min 0 W/m 19,3 km/h (3 Bft) 97,87 %
06.10.2021 06:12 11,4 C 10,6 C 10,0 C 87 % 1011,0 hPa 0,0 l/m 0 min 0 min 0 W/m 19,3 km/h (3 Bft) 93,62 %
06.10.2021 06:14 11,4 C 10,6 C 10,0 C 87 % 1011,0 hPa 0,0 l/m 0 min 0 min 0 W/m 22,5 km/h (4 Bft) 95,74 %
06.10.2021 06:16 11,4 C 10,6 C 10,0 C 87 % 1011,0 hPa 0,0 l/m 0 min 0 min 0 W/m 22,5 km/h (4 Bft) 95,74 %
06.10.2021 06:18 11,4 C 10,6 C 10,0 C 87 % 1011,0 hPa 0,0 l/m 0 min 0 min 0 W/m 35,4 km/h (5 Bft) 95,74 %
06.10.2021 06:20 11,4 C 10,6 C 10,0 C 87 % 1011,1 hPa 0,0 l/m 0 min 0 min 0 W/m 29,0 km/h (5 Bft) 93,48 %
06.10.2021 06:22 11,4 C 10,6 C 10,0 C 87 % 1011,1 hPa 0,0 l/m 0 min 0 min 0 W/m 32,2 km/h (5 Bft) 95,74 %
06.10.2021 06:24 11,4 C 10,6 C 10,0 C 87 % 1011,1 hPa 0,0 l/m 0 min 0 min 0 W/m 19,3 km/h (3 Bft) 95,74 %
06.10.2021 06:26 11,4 C 10,6 C 10,0 C 87 % 1011,2 hPa 0,0 l/m 0 min 0 min 0 W/m 22,5 km/h (4 Bft) 95,74 %
06.10.2021 06:28 11,4 C 10,6 C 10,0 C 87 % 1011,2 hPa 0,0 l/m 0 min 0 min 0 W/m 22,5 km/h (4 Bft) 95,74 %
06.10.2021 06:30 11,4 C 10,6 C 10,0 C 87 % 1011,1 hPa 0,0 l/m 0 min 0 min 0 W/m 29,0 km/h (5 Bft) 95,74 %
06.10.2021 06:32 11,4 C 10,6 C 10,0 C 87 % 1011,1 hPa 0,0 l/m 0 min 0 min 0 W/m 38,6 km/h (5 Bft) 95,65 %
06.10.2021 06:34 11,4 C 10,6 C 10,0 C 87 % 1011,2 hPa 0,0 l/m 0 min 0 min 0 W/m 29,0 km/h (5 Bft) 95,74 %
06.10.2021 06:36 11,4 C 10,6 C 10,0 C 87 % 1011,2 hPa 0,0 l/m 0 min 0 min 0 W/m 45,1 km/h (6 Bft) 95,74 %
06.10.2021 06:38 11,4 C 10,6 C 10,0 C 87 % 1011,2 hPa 0,0 l/m 0 min 0 min 0 W/m 32,2 km/h (5 Bft) 95,74 %
06.10.2021 06:40 11,4 C 10,6 C 10,0 C 87 % 1011,1 hPa 0,0 l/m 0 min 0 min 0 W/m 16,1 km/h (3 Bft) 97,87 %
06.10.2021 06:42 11,4 C 10,6 C 10,0 C 87 % 1011,2 hPa 0,0 l/m 0 min 0 min 0 W/m 25,7 km/h (4 Bft) 97,83 %
06.10.2021 06:44 11,4 C 10,6 C 10,0 C 87 % 1011,2 hPa 0,0 l/m 0 min 0 min 0 W/m 22,5 km/h (4 Bft) 97,87 %
06.10.2021 06:46 11,4 C 10,6 C 10,0 C 87 % 1011,3 hPa 0,0 l/m 0 min 0 min 0 W/m 29,0 km/h (5 Bft) 97,87 %
06.10.2021 06:48 11,4 C 10,6 C 10,0 C 87 % 1011,4 hPa 0,0 l/m 0 min 0 min 0 W/m 32,2 km/h (5 Bft) 97,87 %
06.10.2021 06:50 11,4 C 10,6 C 10,0 C 87 % 1011,4 hPa 0,0 l/m 0 min 0 min 0 W/m 29,0 km/h (5 Bft) 97,87 %
06.10.2021 06:52 11,4 C 10,6 C 10,0 C 87 % 1011,3 hPa 0,0 l/m 0 min 0 min 0 W/m 22,5 km/h (4 Bft) 97,87 %
06.10.2021 06:54 11,4 C 11,1 C 10,0 C 87 % 1011,4 hPa 0,0 l/m 0 min 0 min 0 W/m 29,0 km/h (5 Bft) 97,83 %
06.10.2021 06:56 11,4 C 10,6 C 10,0 C 87 % 1011,3 hPa 0,0 l/m 0 min 0 min 0 W/m 25,7 km/h (4 Bft) 95,74 %
06.10.2021 06:58 11,4 C 11,1 C 10,0 C 87 % 1011,3 hPa 0,0 l/m 0 min 0 min 0 W/m 25,7 km/h (4 Bft) 97,87 %
06.10.2021 07:00 11,4 C 11,1 C 10,0 C 87 % 1011,3 hPa 0,0 l/m 0 min 0 min 0 W/m 25,7 km/h (4 Bft) 100,00 %
06.10.2021 07:02 11,4 C 11,1 C 10,0 C 86 % 1011,4 hPa 0,0 l/m 0 min 0 min 0 W/m 22,5 km/h (4 Bft) 97,87 %
06.10.2021 07:04 11,5 C 11,1 C 10,0 C 86 % 1011,4 hPa 0,0 l/m 0 min 0 min 0 W/m 35,4 km/h (5 Bft) 100,00 %
06.10.2021 07:06 11,5 C 11,1 C 10,0 C 86 % 1011,4 hPa 0,0 l/m 0 min 0 min 0 W/m 22,5 km/h (4 Bft) 100,00 %
06.10.2021 07:08 11,4 C 10,6 C 10,0 C 86 % 1011,4 hPa 0,0 l/m 0 min 0 min 0 W/m 25,7 km/h (4 Bft) 100,00 %
06.10.2021 07:10 11,5 C 10,6 C 10,0 C 86 % 1011,5 hPa 0,0 l/m 0 min 0 min 0 W/m 25,7 km/h (4 Bft) 100,00 %
06.10.2021 07:12 11,5 C 10,6 C 10,0 C 86 % 1011,3 hPa 0,0 l/m 0 min 0 min 0 W/m 25,7 km/h (4 Bft) 97,87 %
06.10.2021 07:14 11,4 C 10,6 C 10,0 C 86 % 1011,3 hPa 0,0 l/m 0 min 0 min 0 W/m 22,5 km/h (4 Bft) 97,87 %
06.10.2021 07:16 11,5 C 10,6 C 10,0 C 86 % 1011,4 hPa 0,0 l/m 0 min 0 min 0 W/m 16,1 km/h (3 Bft) 100,00 %
06.10.2021 07:18 11,5 C 10,6 C 10,0 C 86 % 1011,4 hPa 0,0 l/m 0 min 0 min 0 W/m 19,3 km/h (3 Bft) 97,83 %
06.10.2021 07:20 11,5 C 10,6 C 10,0 C 86 % 1011,4 hPa 0,0 l/m 0 min 0 min 0 W/m 25,7 km/h (4 Bft) 97,87 %
06.10.2021 07:22 11,5 C 11,1 C 10,0 C 85 % 1011,4 hPa 0,0 l/m 0 min 0 min 0 W/m 35,4 km/h (5 Bft) 100,00 %
06.10.2021 07:24 11,5 C 11,1 C 10,0 C 85 % 1011,4 hPa 0,0 l/m 0 min 0 min 0 W/m 29,0 km/h (5 Bft) 100,00 %
06.10.2021 07:26 11,5 C 11,1 C 10,0 C 85 % 1011,4 hPa 0,0 l/m 0 min 0 min 0 W/m 32,2 km/h (5 Bft) 93,62 %
06.10.2021 07:28 11,5 C 11,1 C 10,0 C 85 % 1011,5 hPa 0,0 l/m 0 min 0 min 0 W/m 41,8 km/h (6 Bft) 97,87 %
06.10.2021 07:30 11,5 C 11,1 C 10,0 C 85 % 1011,6 hPa 0,0 l/m 0 min 0 min 0 W/m 32,2 km/h (5 Bft) 97,83 %
06.10.2021 07:32 11,5 C 11,1 C 10,0 C 85 % 1011,6 hPa 0,0 l/m 0 min 0 min 0 W/m 25,7 km/h (4 Bft) 97,87 %
06.10.2021 07:34 11,5 C 11,1 C 10,0 C 85 % 1011,5 hPa 0,0 l/m 0 min 0 min 0 W/m 22,5 km/h (4 Bft) 97,87 %
06.10.2021 07:36 11,5 C 11,1 C 10,0 C 85 % 1011,6 hPa 0,0 l/m 0 min 0 min 0 W/m 19,3 km/h (3 Bft) 95,74 %
06.10.2021 07:38 11,5 C 11,1 C 10,0 C 85 % 1011,5 hPa 0,0 l/m 0 min 0 min 0 W/m 22,5 km/h (4 Bft) 97,87 %
06.10.2021 07:40 11,6 C 11,1 C 10,0 C 85 % 1011,7 hPa 0,0 l/m 0 min 0 min 0 W/m 35,4 km/h (5 Bft) 95,74 %
06.10.2021 07:42 11,6 C 11,1 C 10,0 C 85 % 1011,6 hPa 0,0 l/m 0 min 0 min 0 W/m 22,5 km/h (4 Bft) 97,83 %
06.10.2021 07:44 11,6 C 11,1 C 10,0 C 85 % 1011,6 hPa 0,0 l/m 0 min 0 min 0 W/m 29,0 km/h (5 Bft) 95,74 %
06.10.2021 07:46 11,6 C 11,1 C 10,0 C 85 % 1011,6 hPa 0,0 l/m 0 min 0 min 0 W/m 29,0 km/h (5 Bft) 97,87 %
06.10.2021 07:48 11,6 C 11,1 C 10,0 C 85 % 1011,7 hPa 0,0 l/m 0 min 0 min 3 W/m 22,5 km/h (4 Bft) 97,87 %
06.10.2021 07:50 11,6 C 11,1 C 10,0 C 85 % 1011,7 hPa 0,0 l/m 0 min 0 min 5 W/m 19,3 km/h (3 Bft) 95,74 %
06.10.2021 07:52 11,6 C 11,1 C 9,5 C 85 % 1011,6 hPa 0,0 l/m 0 min 2 min 5 W/m 25,7 km/h (4 Bft) 97,87 %
06.10.2021 07:54 11,6 C 10,6 C 9,5 C 85 % 1011,7 hPa 0,0 l/m 0 min 2 min 6 W/m 29,0 km/h (5 Bft) 97,83 %
06.10.2021 07:56 11,6 C 10,6 C 8,9 C 86 % 1011,7 hPa 0,0 l/m 0 min 2 min 5 W/m 22,5 km/h (4 Bft) 97,87 %
06.10.2021 07:58 11,6 C 10,6 C 8,9 C 86 % 1011,6 hPa 0,0 l/m 0 min 2 min 5 W/m 22,5 km/h (4 Bft) 100,00 %
06.10.2021 08:00 11,5 C 10,6 C 8,9 C 86 % 1011,8 hPa 0,2 l/m 0 min 2 min 7 W/m 19,3 km/h (3 Bft) 100,00 %
06.10.2021 08:02 11,5 C 10,6 C 8,9 C 87 % 1011,8 hPa 0,0 l/m 0 min 2 min 6 W/m 19,3 km/h (3 Bft) 97,87 %
06.10.2021 08:04 11,4 C 10,6 C 8,9 C 87 % 1011,8 hPa 0,0 l/m 0 min 2 min 6 W/m 19,3 km/h (3 Bft) 100,00 %
06.10.2021 08:06 11,4 C 10,0 C 8,9 C 87 % 1011,8 hPa 0,0 l/m 0 min 2 min 5 W/m 22,5 km/h (4 Bft) 100,00 %
06.10.2021 08:08 11,3 C 10,0 C 8,4 C 88 % 1011,8 hPa 0,0 l/m 0 min 2 min 3 W/m 25,7 km/h (4 Bft) 100,00 %
06.10.2021 08:10 11,3 C 10,0 C 8,4 C 88 % 1011,8 hPa 0,0 l/m 0 min 2 min 0 W/m 19,3 km/h (3 Bft) 100,00 %
06.10.2021 08:12 11,2 C 10,0 C 8,4 C 88 % 1011,8 hPa 0,0 l/m 0 min 2 min 3 W/m 22,5 km/h (4 Bft) 100,00 %
06.10.2021 08:14 11,1 C 10,0 C 8,4 C 88 % 1011,9 hPa 0,0 l/m 0 min 2 min 6 W/m 16,1 km/h (3 Bft) 100,00 %
06.10.2021 08:16 11,1 C 10,0 C 8,4 C 89 % 1011,8 hPa 0,0 l/m 0 min 2 min 10 W/m 22,5 km/h (4 Bft) 100,00 %
06.10.2021 08:18 11,1 C 10,0 C 8,4 C 89 % 1011,8 hPa 0,0 l/m 0 min 2 min 11 W/m 25,7 km/h (4 Bft) 100,00 %
06.10.2021 08:20 11,0 C 10,0 C 8,4 C 89 % 1011,9 hPa 0,0 l/m 0 min 2 min 8 W/m 12,9 km/h (3 Bft) 100,00 %
06.10.2021 08:22 11,0 C 10,0 C 8,4 C 89 % 1011,9 hPa 0,2 l/m 0 min 2 min 7 W/m 19,3 km/h (3 Bft) 100,00 %
06.10.2021 08:24 11,0 C 10,0 C 8,4 C 89 % 1011,9 hPa 0,2 l/m 0 min 2 min 7 W/m 25,7 km/h (4 Bft) 97,87 %
06.10.2021 08:26 10,9 C 10,0 C 8,4 C 90 % 1011,9 hPa 0,0 l/m 0 min 2 min 7 W/m 29,0 km/h (5 Bft) 97,87 %
06.10.2021 08:28 10,9 C 10,0 C 8,4 C 90 % 1012,0 hPa 0,0 l/m 0 min 2 min 7 W/m 16,1 km/h (3 Bft) 100,00 %
06.10.2021 08:30 10,9 C 10,0 C 8,4 C 90 % 1012,0 hPa 0,0 l/m 0 min 2 min 7 W/m 19,3 km/h (3 Bft) 100,00 %
06.10.2021 08:32 10,8 C 10,0 C 8,4 C 90 % 1012,0 hPa 0,0 l/m 0 min 2 min 6 W/m 35,4 km/h (5 Bft) 100,00 %
06.10.2021 08:34 10,8 C 9,4 C 8,4 C 91 % 1012,1 hPa 0,0 l/m 0 min 2 min 7 W/m 19,3 km/h (3 Bft) 97,87 %
06.10.2021 08:36 10,7 C 9,4 C 8,4 C 91 % 1012,1 hPa 0,2 l/m 0 min 2 min 8 W/m 22,5 km/h (4 Bft) 100,00 %
06.10.2021 08:38 10,7 C 9,4 C 8,4 C 91 % 1012,1 hPa 0,0 l/m 0 min 2 min 11 W/m 19,3 km/h (3 Bft) 97,87 %
06.10.2021 08:40 10,6 C 9,4 C 8,4 C 91 % 1012,1 hPa 0,0 l/m 0 min 2 min 15 W/m 35,4 km/h (5 Bft) 95,74 %
06.10.2021 08:42 10,6 C 9,4 C 8,4 C 91 % 1012,1 hPa 0,2 l/m 0 min 2 min 19 W/m 16,1 km/h (3 Bft) 95,65 %
06.10.2021 08:44 10,6 C 9,4 C 8,4 C 92 % 1012,1 hPa 0,0 l/m 0 min 2 min 24 W/m 25,7 km/h (4 Bft) 95,74 %
06.10.2021 08:46 10,5 C 9,4 C 8,4 C 92 % 1012,0 hPa 0,0 l/m 0 min 2 min 27 W/m 22,5 km/h (4 Bft) 95,74 %
06.10.2021 08:48 10,5 C 9,4 C 8,4 C 92 % 1012,0 hPa 0,0 l/m 0 min 0 min 26 W/m 25,7 km/h (4 Bft) 97,87 %
06.10.2021 08:50 10,5 C 9,4 C 8,4 C 92 % 1012,0 hPa 0,0 l/m 0 min 2 min 24 W/m 32,2 km/h (5 Bft) 95,74 %
06.10.2021 08:52 10,5 C 9,4 C 8,4 C 92 % 1012,1 hPa 0,0 l/m 0 min 2 min 22 W/m 25,7 km/h (4 Bft) 97,87 %
06.10.2021 08:54 10,5 C 9,4 C 8,4 C 92 % 1012,1 hPa 0,0 l/m 0 min 2 min 20 W/m 29,0 km/h (5 Bft) 97,83 %
06.10.2021 08:56 10,5 C 9,4 C 8,4 C 92 % 1012,1 hPa 0,0 l/m 0 min 2 min 19 W/m 25,7 km/h (4 Bft) 97,87 %
06.10.2021 08:58 10,5 C 9,4 C 8,4 C 93 % 1012,2 hPa 0,0 l/m 0 min 2 min 19 W/m 25,7 km/h (4 Bft) 97,87 %
06.10.2021 09:00 10,5 C 9,4 C 8,4 C 93 % 1012,1 hPa 0,0 l/m 0 min 2 min 21 W/m 29,0 km/h (5 Bft) 97,87 %
06.10.2021 09:02 10,5 C 9,4 C 8,4 C 92 % 1012,1 hPa 0,0 l/m 0 min 2 min 21 W/m 22,5 km/h (4 Bft) 97,87 %
06.10.2021 09:04 10,5 C 10,0 C 8,4 C 92 % 1012,2 hPa 0,0 l/m 0 min 2 min 20 W/m 35,4 km/h (5 Bft) 95,74 %
06.10.2021 09:06 10,5 C 10,0 C 8,4 C 92 % 1012,2 hPa 0,0 l/m 0 min 2 min 21 W/m 32,2 km/h (5 Bft) 97,83 %
06.10.2021 09:08 10,5 C 10,0 C 8,4 C 92 % 1012,2 hPa 0,0 l/m 0 min 2 min 27 W/m 19,3 km/h (3 Bft) 96,00 %
06.10.2021 09:10 10,5 C 10,0 C 8,4 C 92 % 1012,1 hPa 0,0 l/m 0 min 2 min 34 W/m 22,5 km/h (4 Bft) 95,74 %
06.10.2021 09:12 10,5 C 10,0 C 8,9 C 93 % 1012,1 hPa 0,0 l/m 0 min 2 min 41 W/m 19,3 km/h (3 Bft) 93,62 %
06.10.2021 09:14 10,5 C 10,0 C 8,9 C 93 % 1012,1 hPa 0,0 l/m 0 min 2 min 46 W/m 32,2 km/h (5 Bft) 95,74 %
06.10.2021 09:16 10,5 C 10,0 C 8,4 C 93 % 1012,1 hPa 0,0 l/m 0 min 2 min 52 W/m 25,7 km/h (4 Bft) 95,65 %
06.10.2021 09:18 10,5 C 10,0 C 8,9 C 93 % 1012,1 hPa 0,0 l/m 0 min 2 min 54 W/m 32,2 km/h (5 Bft) 95,74 %
06.10.2021 09:20 10,5 C 10,0 C 8,9 C 93 % 1012,1 hPa 0,0 l/m 0 min 2 min 57 W/m 22,5 km/h (4 Bft) 89,36 %
06.10.2021 09:22 10,5 C 10,0 C 8,9 C 93 % 1012,1 hPa 0,0 l/m 0 min 2 min 58 W/m 25,7 km/h (4 Bft) 93,62 %
06.10.2021 09:24 10,5 C 10,0 C 8,9 C 93 % 1012,1 hPa 0,0 l/m 0 min 2 min 60 W/m 25,7 km/h (4 Bft) 93,62 %
06.10.2021 09:26 10,5 C 10,0 C 8,9 C 93 % 1012,1 hPa 0,0 l/m 0 min 2 min 60 W/m 25,7 km/h (4 Bft) 95,74 %
06.10.2021 09:28 10,5 C 10,0 C 8,9 C 93 % 1012,2 hPa 0,0 l/m 0 min 2 min 59 W/m 25,7 km/h (4 Bft) 95,65 %
06.10.2021 09:30 10,5 C 10,0 C 8,9 C 93 % 1012,2 hPa 0,2 l/m 0 min 2 min 48 W/m 29,0 km/h (5 Bft) 93,62 %
06.10.2021 09:32 10,5 C 10,0 C 8,9 C 93 % 1012,2 hPa 0,0 l/m 0 min 2 min 34 W/m 12,9 km/h (3 Bft) 93,62 %
06.10.2021 09:34 10,5 C 9,4 C 8,9 C 93 % 1012,2 hPa 0,0 l/m 0 min 2 min 31 W/m 25,7 km/h (4 Bft) 95,74 %
06.10.2021 09:36 10,5 C 9,4 C 8,9 C 93 % 1012,2 hPa 0,0 l/m 0 min 2 min 33 W/m 22,5 km/h (4 Bft) 95,74 %
06.10.2021 09:38 10,5 C 9,4 C 8,9 C 93 % 1012,2 hPa 0,0 l/m 0 min 2 min 38 W/m 41,8 km/h (6 Bft) 95,74 %
06.10.2021 09:40 10,5 C 10,0 C 8,9 C 93 % 1012,3 hPa 0,0 l/m 0 min 2 min 40 W/m 41,8 km/h (6 Bft) 93,48 %
06.10.2021 09:42 10,5 C 10,0 C 8,9 C 93 % 1012,3 hPa 0,0 l/m 0 min 2 min 44 W/m 29,0 km/h (5 Bft) 95,74 %
06.10.2021 09:44 10,5 C 10,0 C 8,9 C 93 % 1012,3 hPa 0,0 l/m 0 min 0 min 45 W/m 25,7 km/h (4 Bft) 95,74 %
06.10.2021 09:46 10,5 C 10,0 C 8,9 C 93 % 1012,3 hPa 0,0 l/m 0 min 0 min 40 W/m 22,5 km/h (4 Bft) 95,74 %
06.10.2021 09:48 10,5 C 10,0 C 8,9 C 93 % 1012,3 hPa 0,0 l/m 0 min 0 min 37 W/m 22,5 km/h (4 Bft) 93,62 %
06.10.2021 09:50 10,6 C 10,0 C 8,9 C 93 % 1012,3 hPa 0,0 l/m 0 min 0 min 34 W/m 19,3 km/h (3 Bft) 93,62 %
06.10.2021 09:52 10,6 C 10,0 C 8,9 C 93 % 1012,4 hPa 0,0 l/m 0 min 0 min 42 W/m 35,4 km/h (5 Bft) 93,48 %
06.10.2021 09:54 10,6 C 10,0 C 8,9 C 93 % 1012,4 hPa 0,0 l/m 0 min 0 min 58 W/m 25,7 km/h (4 Bft) 97,87 %
06.10.2021 09:56 10,6 C 10,0 C 8,9 C 93 % 1012,4 hPa 0,0 l/m 0 min 0 min 83 W/m 25,7 km/h (4 Bft) 97,87 %
06.10.2021 09:58 10,6 C 10,0 C 8,9 C 92 % 1012,4 hPa 0,0 l/m 0 min 0 min 94 W/m 32,2 km/h (5 Bft) 100,00 %
06.10.2021 10:00 10,7 C 10,6 C 8,9 C 92 % 1012,4 hPa 0,0 l/m 0 min 0 min 108 W/m 25,7 km/h (4 Bft) 100,00 %
06.10.2021 10:02 10,8 C 10,6 C 8,9 C 92 % 1012,4 hPa 0,0 l/m 0 min 0 min 101 W/m 32,2 km/h (5 Bft) 100,00 %
06.10.2021 10:04 10,8 C 10,6 C 8,9 C 92 % 1012,4 hPa 0,0 l/m 0 min 0 min 89 W/m 35,4 km/h (5 Bft) 100,00 %
06.10.2021 10:06 10,9 C 10,6 C 8,9 C 92 % 1012,4 hPa 0,0 l/m 0 min 0 min 100 W/m 29,0 km/h (5 Bft) 100,00 %
06.10.2021 10:08 10,9 C 10,6 C 8,9 C 92 % 1012,5 hPa 0,0 l/m 0 min 0 min 102 W/m 35,4 km/h (5 Bft) 100,00 %
06.10.2021 10:10 10,9 C 10,6 C 8,9 C 92 % 1012,4 hPa 0,0 l/m 0 min 0 min 106 W/m 48,3 km/h (6 Bft) 100,00 %
06.10.2021 10:12 11,0 C 10,6 C 8,9 C 91 % 1012,3 hPa 0,0 l/m 0 min 0 min 98 W/m 32,2 km/h (5 Bft) 100,00 %
06.10.2021 10:14 11,0 C 10,6 C 8,9 C 91 % 1012,4 hPa 0,0 l/m 0 min 0 min 100 W/m 25,7 km/h (4 Bft) 100,00 %
06.10.2021 10:16 11,0 C 10,6 C 8,9 C 91 % 1012,4 hPa 0,0 l/m 0 min 0 min 104 W/m 32,2 km/h (5 Bft) 100,00 %
06.10.2021 10:18 11,1 C 10,6 C 8,9 C 91 % 1012,5 hPa 0,0 l/m 0 min 0 min 92 W/m 25,7 km/h (4 Bft) 100,00 %
06.10.2021 10:20 11,1 C 10,6 C 8,9 C 91 % 1012,4 hPa 0,0 l/m 0 min 0 min 77 W/m 22,5 km/h (4 Bft) 100,00 %
06.10.2021 10:22 11,1 C 10,6 C 8,9 C 91 % 1012,5 hPa 0,0 l/m 0 min 0 min 83 W/m 51,5 km/h (7 Bft) 100,00 %
06.10.2021 10:24 11,1 C 10,6 C 8,9 C 90 % 1012,5 hPa 0,0 l/m 0 min 0 min 87 W/m 41,8 km/h (6 Bft) 100,00 %
06.10.2021 10:26 11,1 C 10,6 C 8,9 C 90 % 1012,5 hPa 0,0 l/m 0 min 0 min 78 W/m 29,0 km/h (5 Bft) 100,00 %
06.10.2021 10:28 11,1 C 10,6 C 8,9 C 90 % 1012,5 hPa 0,0 l/m 0 min 0 min 87 W/m 29,0 km/h (5 Bft) 100,00 %
06.10.2021 10:30 11,2 C 10,6 C 8,9 C 90 % 1012,6 hPa 0,0 l/m 0 min 0 min 119 W/m 19,3 km/h (3 Bft) 100,00 %
06.10.2021 10:32 11,3 C 10,6 C 9,5 C 90 % 1012,6 hPa 0,0 l/m 0 min 0 min 130 W/m 38,6 km/h (5 Bft) 100,00 %
06.10.2021 10:34 11,3 C 11,1 C 8,9 C 90 % 1012,7 hPa 0,0 l/m 0 min 0 min 112 W/m 41,8 km/h (6 Bft) 97,87 %
06.10.2021 10:36 11,3 C 10,6 C 8,9 C 90 % 1012,7 hPa 0,0 l/m 0 min 0 min 88 W/m 25,7 km/h (4 Bft) 100,00 %
06.10.2021 10:38 11,3 C 10,6 C 8,9 C 89 % 1012,7 hPa 0,0 l/m 0 min 2 min 89 W/m 25,7 km/h (4 Bft) 100,00 %
06.10.2021 10:40 11,3 C 10,6 C 8,9 C 89 % 1012,7 hPa 0,0 l/m 0 min 0 min 90 W/m 29,0 km/h (5 Bft) 100,00 %
06.10.2021 10:42 11,4 C 10,6 C 8,9 C 89 % 1012,8 hPa 0,0 l/m 0 min 0 min 94 W/m 51,5 km/h (7 Bft) 100,00 %
06.10.2021 10:44 11,4 C 11,1 C 8,9 C 89 % 1012,8 hPa 0,0 l/m 0 min 0 min 122 W/m 32,2 km/h (5 Bft) 100,00 %
06.10.2021 10:46 11,4 C 11,1 C 9,5 C 89 % 1012,8 hPa 0,0 l/m 0 min 0 min 172 W/m 38,6 km/h (5 Bft) 100,00 %
06.10.2021 10:48 11,4 C 11,1 C 9,5 C 89 % 1012,7 hPa 0,0 l/m 0 min 2 min 157 W/m 35,4 km/h (5 Bft) 100,00 %
06.10.2021 10:50 11,4 C 11,1 C 9,5 C 89 % 1012,9 hPa 0,0 l/m 0 min 2 min 172 W/m 41,8 km/h (6 Bft) 100,00 %
06.10.2021 10:52 11,4 C 11,1 C 9,5 C 89 % 1012,9 hPa 0,0 l/m 0 min 2 min 154 W/m 22,5 km/h (4 Bft) 100,00 %
06.10.2021 10:54 11,4 C 11,1 C 9,5 C 89 % 1012,9 hPa 0,0 l/m 0 min 2 min 153 W/m 22,5 km/h (4 Bft) 100,00 %
06.10.2021 10:56 11,4 C 11,1 C 9,5 C 89 % 1012,9 hPa 0,0 l/m 0 min 2 min 113 W/m 22,5 km/h (4 Bft) 97,87 %
06.10.2021 10:58 11,4 C 11,1 C 9,5 C 90 % 1012,9 hPa 0,0 l/m 0 min 2 min 85 W/m 22,5 km/h (4 Bft) 98,31 %
06.10.2021 11:00 11,4 C 10,6 C 9,5 C 90 % 1013,0 hPa 0,0 l/m 0 min 2 min 92 W/m 29,0 km/h (5 Bft) 100,00 %
06.10.2021 11:02 11,4 C 11,1 C 9,5 C 90 % 1012,9 hPa 0,0 l/m 0 min 2 min 130 W/m 22,5 km/h (4 Bft) 100,00 %
06.10.2021 11:04 11,4 C 11,1 C 9,5 C 90 % 1013,0 hPa 0,0 l/m 0 min 2 min 154 W/m 22,5 km/h (4 Bft) 97,87 %
06.10.2021 11:06 11,4 C 11,1 C 9,5 C 90 % 1013,0 hPa 0,0 l/m 0 min 2 min 139 W/m 35,4 km/h (5 Bft) 100,00 %
06.10.2021 11:08 11,4 C 11,1 C 9,5 C 90 % 1013,0 hPa 0,0 l/m 0 min 0 min 128 W/m 48,3 km/h (6 Bft) 100,00 %
06.10.2021 11:10 11,4 C 11,1 C 9,5 C 90 % 1013,0 hPa 0,0 l/m 0 min 2 min 138 W/m 25,7 km/h (4 Bft) 97,87 %
06.10.2021 11:12 11,4 C 11,1 C 9,5 C 90 % 1013,0 hPa 0,0 l/m 0 min 0 min 146 W/m 35,4 km/h (5 Bft) 100,00 %
06.10.2021 11:14 11,4 C 11,1 C 9,5 C 90 % 1013,0 hPa 0,0 l/m 0 min 0 min 156 W/m 32,2 km/h (5 Bft) 97,83 %
06.10.2021 11:16 11,4 C 11,1 C 9,5 C 90 % 1013,1 hPa 0,0 l/m 0 min 2 min 179 W/m 22,5 km/h (4 Bft) 100,00 %
06.10.2021 11:18 11,4 C 11,1 C 9,5 C 91 % 1013,1 hPa 0,0 l/m 0 min 0 min 167 W/m 22,5 km/h (4 Bft) 97,87 %
06.10.2021 11:20 11,4 C 11,1 C 9,5 C 91 % 1013,1 hPa 0,0 l/m 0 min 2 min 125 W/m 32,2 km/h (5 Bft) 95,74 %
06.10.2021 11:22 11,4 C 11,1 C 9,5 C 91 % 1013,2 hPa 0,0 l/m 0 min 2 min 110 W/m 25,7 km/h (4 Bft) 93,62 %
06.10.2021 11:24 11,4 C 11,1 C 9,5 C 91 % 1013,4 hPa 0,0 l/m 0 min 2 min 143 W/m 38,6 km/h (5 Bft) 93,62 %
06.10.2021 11:26 11,3 C 11,1 C 9,5 C 91 % 1013,2 hPa 0,0 l/m 0 min 2 min 170 W/m 35,4 km/h (5 Bft) 95,65 %
06.10.2021 11:28 11,3 C 11,1 C 9,5 C 91 % 1013,3 hPa 0,0 l/m 0 min 2 min 151 W/m 38,6 km/h (5 Bft) 91,67 %
06.10.2021 11:30 11,3 C 10,6 C 9,5 C 91 % 1013,2 hPa 0,0 l/m 0 min 2 min 118 W/m 22,5 km/h (4 Bft) 96,72 %
06.10.2021 11:32 11,3 C 10,6 C 9,5 C 91 % 1013,3 hPa 0,0 l/m 0 min 2 min 111 W/m 29,0 km/h (5 Bft) 95,74 %
06.10.2021 11:34 11,3 C 10,6 C 9,5 C 92 % 1013,4 hPa 0,0 l/m 0 min 2 min 102 W/m 35,4 km/h (5 Bft) 93,62 %
06.10.2021 11:36 11,2 C 10,6 C 9,5 C 92 % 1013,4 hPa 0,0 l/m 0 min 2 min 93 W/m 25,7 km/h (4 Bft) 95,74 %
06.10.2021 11:38 11,1 C 10,6 C 9,5 C 92 % 1013,4 hPa 0,0 l/m 0 min 2 min 79 W/m 35,4 km/h (5 Bft) 95,74 %
06.10.2021 11:40 11,1 C 10,6 C 9,5 C 92 % 1013,4 hPa 0,0 l/m 0 min 2 min 77 W/m 41,8 km/h (6 Bft) 95,65 %
06.10.2021 11:42 11,1 C 10,6 C 9,5 C 92 % 1013,4 hPa 0,0 l/m 0 min 2 min 82 W/m 25,7 km/h (4 Bft) 93,62 %
06.10.2021 11:44 11,0 C 10,6 C 9,5 C 92 % 1013,5 hPa 0,0 l/m 0 min 2 min 58 W/m 25,7 km/h (4 Bft) 93,62 %
06.10.2021 11:46 11,0 C 10,6 C 9,5 C 93 % 1013,4 hPa 0,0 l/m 0 min 2 min 62 W/m 29,0 km/h (5 Bft) 95,74 %
06.10.2021 11:48 11,0 C 10,6 C 9,5 C 93 % 1013,5 hPa 0,0 l/m 0 min 2 min 74 W/m 25,7 km/h (4 Bft) 95,74 %
06.10.2021 11:50 11,0 C 10,6 C 9,5 C 93 % 1013,5 hPa 0,0 l/m 0 min 2 min 89 W/m 35,4 km/h (5 Bft) 95,74 %
06.10.2021 11:52 11,0 C 10,6 C 9,5 C 93 % 1013,6 hPa 0,0 l/m 0 min 2 min 110 W/m 25,7 km/h (4 Bft) 95,65 %
06.10.2021 11:54 11,0 C 10,6 C 9,5 C 93 % 1013,6 hPa 0,0 l/m 0 min 0 min 130 W/m 35,4 km/h (5 Bft) 97,87 %
06.10.2021 11:56 11,0 C 10,6 C 9,5 C 93 % 1013,6 hPa 0,0 l/m 0 min 2 min 126 W/m 32,2 km/h (5 Bft) 100,00 %
06.10.2021 11:58 11,0 C 10,6 C 9,5 C 93 % 1013,6 hPa 0,0 l/m 0 min 2 min 134 W/m 22,5 km/h (4 Bft) 97,87 %
06.10.2021 12:00 11,0 C 10,6 C 9,5 C 93 % 1013,6 hPa 0,0 l/m 0 min 2 min 140 W/m 35,4 km/h (5 Bft) 97,87 %
06.10.2021 12:02 11,0 C 10,6 C 9,5 C 94 % 1013,6 hPa 0,0 l/m 0 min 2 min 122 W/m 22,5 km/h (4 Bft) 97,92 %
06.10.2021 12:04 11,1 C 10,6 C 9,5 C 94 % 1013,6 hPa 0,0 l/m 0 min 2 min 104 W/m 22,5 km/h (4 Bft) 97,83 %
06.10.2021 12:08 11,0 C 10,6 C 9,5 C 94 % 1013,7 hPa 0,0 l/m 0 min 4 min 83 W/m 32,2 km/h (5 Bft) 94,79 %
06.10.2021 12:10 11,0 C 10,6 C 9,5 C 94 % 1013,7 hPa 0,0 l/m 0 min 2 min 82 W/m 25,7 km/h (4 Bft) 93,62 %
06.10.2021 12:12 11,0 C 10,6 C 9,5 C 94 % 1013,7 hPa 0,0 l/m 0 min 2 min 79 W/m 35,4 km/h (5 Bft) 95,74 %
06.10.2021 12:14 11,0 C 10,6 C 9,5 C 94 % 1013,7 hPa 0,0 l/m 0 min 2 min 86 W/m 29,0 km/h (5 Bft) 97,87 %
06.10.2021 12:16 11,0 C 10,6 C 9,5 C 94 % 1013,8 hPa 0,0 l/m 0 min 2 min 83 W/m 22,5 km/h (4 Bft) 97,83 %
06.10.2021 12:18 11,0 C 10,6 C 9,5 C 94 % 1013,8 hPa 0,0 l/m 0 min 2 min 94 W/m 25,7 km/h (4 Bft) 95,74 %
06.10.2021 12:20 11,0 C 10,6 C 9,5 C 94 % 1013,9 hPa 0,0 l/m 0 min 2 min 97 W/m 16,1 km/h (3 Bft) 97,87 %
06.10.2021 12:22 11,1 C 10,6 C 9,5 C 94 % 1014,0 hPa 0,0 l/m 0 min 2 min 91 W/m 19,3 km/h (3 Bft) 97,87 %
06.10.2021 12:24 11,1 C 10,6 C 9,5 C 94 % 1013,9 hPa 0,0 l/m 0 min 2 min 102 W/m 19,3 km/h (3 Bft) 97,87 %
06.10.2021 12:26 11,1 C 10,6 C 9,5 C 94 % 1014,0 hPa 0,0 l/m 0 min 2 min 94 W/m 22,5 km/h (4 Bft) 95,74 %
06.10.2021 12:28 11,1 C 10,6 C 9,5 C 94 % 1014,0 hPa 0,0 l/m 0 min 2 min 97 W/m 29,0 km/h (5 Bft) 97,83 %
06.10.2021 12:30 11,1 C 10,6 C 9,5 C 94 % 1014,0 hPa 0,0 l/m 0 min 2 min 123 W/m 22,5 km/h (4 Bft) 97,87 %
06.10.2021 12:32 11,1 C 11,1 C 10,0 C 94 % 1014,0 hPa 0,0 l/m 0 min 2 min 137 W/m 38,6 km/h (5 Bft) 97,87 %
06.10.2021 12:34 11,2 C 11,1 C 10,0 C 94 % 1014,0 hPa 0,0 l/m 0 min 2 min 134 W/m 25,7 km/h (4 Bft) 97,87 %
06.10.2021 12:36 11,2 C 11,1 C 10,0 C 94 % 1014,1 hPa 0,0 l/m 0 min 2 min 131 W/m 22,5 km/h (4 Bft) 97,87 %
06.10.2021 12:38 11,2 C 11,1 C 10,0 C 94 % 1014,1 hPa 0,0 l/m 0 min 2 min 109 W/m 38,6 km/h (5 Bft) 97,83 %
06.10.2021 12:40 11,2 C 11,1 C 9,5 C 94 % 1014,1 hPa 0,0 l/m 0 min 2 min 111 W/m 25,7 km/h (4 Bft) 95,74 %
06.10.2021 12:42 11,2 C 11,1 C 10,0 C 94 % 1014,1 hPa 0,0 l/m 0 min 2 min 112 W/m 25,7 km/h (4 Bft) 97,92 %
06.10.2021 12:44 11,3 C 11,1 C 10,0 C 94 % 1014,0 hPa 0,0 l/m 0 min 2 min 139 W/m 29,0 km/h (5 Bft) 95,74 %
06.10.2021 12:46 11,3 C 11,1 C 10,0 C 94 % 1014,2 hPa 0,0 l/m 0 min 2 min 195 W/m 35,4 km/h (5 Bft) 97,87 %
06.10.2021 12:48 11,3 C 11,1 C 10,0 C 94 % 1014,3 hPa 0,0 l/m 0 min 2 min 213 W/m 22,5 km/h (4 Bft) 97,87 %
06.10.2021 12:50 11,4 C 11,7 C 10,0 C 94 % 1014,2 hPa 0,0 l/m 0 min 0 min 194 W/m 32,2 km/h (5 Bft) 97,83 %
06.10.2021 12:52 11,4 C 11,7 C 10,0 C 94 % 1014,2 hPa 0,0 l/m 0 min 0 min 154 W/m 22,5 km/h (4 Bft) 97,87 %
06.10.2021 12:54 11,5 C 11,1 C 10,0 C 94 % 1014,2 hPa 0,0 l/m 0 min 0 min 98 W/m 29,0 km/h (5 Bft) 100,00 %
06.10.2021 12:56 11,4 C 11,1 C 10,0 C 94 % 1014,2 hPa 0,0 l/m 0 min 0 min 105 W/m 29,0 km/h (5 Bft) 100,00 %
06.10.2021 12:58 11,4 C 11,1 C 10,0 C 94 % 1014,2 hPa 0,0 l/m 0 min 0 min 145 W/m 32,2 km/h (5 Bft) 100,00 %
06.10.2021 13:00 11,4 C 11,1 C 10,0 C 94 % 1014,3 hPa 0,0 l/m 0 min 0 min 133 W/m 29,0 km/h (5 Bft) 100,00 %
06.10.2021 13:02 11,4 C 11,1 C 10,0 C 94 % 1014,3 hPa 0,0 l/m 0 min 0 min 128 W/m 16,1 km/h (3 Bft) 100,00 %
06.10.2021 13:04 11,4 C 11,1 C 10,0 C 94 % 1014,3 hPa 0,0 l/m 0 min 0 min 126 W/m 29,0 km/h (5 Bft) 100,00 %
06.10.2021 13:06 11,4 C 11,1 C 10,0 C 94 % 1014,3 hPa 0,0 l/m 0 min 0 min 116 W/m 25,7 km/h (4 Bft) 97,87 %
06.10.2021 13:08 11,4 C 11,1 C 10,0 C 94 % 1014,3 hPa 0,0 l/m 0 min 0 min 112 W/m 22,5 km/h (4 Bft) 100,00 %
06.10.2021 13:10 11,4 C 11,1 C 10,0 C 94 % 1014,4 hPa 0,0 l/m 0 min 0 min 87 W/m 29,0 km/h (5 Bft) 100,00 %
06.10.2021 13:12 11,5 C 11,1 C 10,0 C 94 % 1014,3 hPa 0,0 l/m 0 min 0 min 95 W/m 32,2 km/h (5 Bft) 97,87 %
06.10.2021 13:14 11,5 C 11,1 C 10,0 C 94 % 1014,4 hPa 0,0 l/m 0 min 0 min 107 W/m 29,0 km/h (5 Bft) 97,83 %
06.10.2021 13:16 11,5 C 11,1 C 10,0 C 94 % 1014,4 hPa 0,0 l/m 0 min 0 min 98 W/m 29,0 km/h (5 Bft) 97,87 %
06.10.2021 13:18 11,5 C 11,1 C 10,0 C 94 % 1014,4 hPa 0,0 l/m 0 min 0 min 82 W/m 19,3 km/h (3 Bft) 97,87 %
06.10.2021 13:20 11,5 C 11,1 C 10,0 C 94 % 1014,5 hPa 0,0 l/m 0 min 0 min 68 W/m 12,9 km/h (3 Bft) 97,87 %
06.10.2021 13:22 11,5 C 11,1 C 10,0 C 94 % 1014,5 hPa 0,0 l/m 0 min 0 min 54 W/m 22,5 km/h (4 Bft) 97,87 %
06.10.2021 13:24 11,5 C 11,1 C 10,0 C 94 % 1014,4 hPa 0,0 l/m 0 min 0 min 57 W/m 29,0 km/h (5 Bft) 97,87 %
06.10.2021 13:26 11,5 C 11,1 C 10,0 C 94 % 1014,5 hPa 0,0 l/m 0 min 0 min 66 W/m 12,9 km/h (3 Bft) 97,83 %
06.10.2021 13:28 11,5 C 11,1 C 10,0 C 94 % 1014,5 hPa 0,0 l/m 0 min 2 min 62 W/m 16,1 km/h (3 Bft) 97,87 %
06.10.2021 13:30 11,5 C 11,1 C 10,0 C 94 % 1014,5 hPa 0,0 l/m 0 min 2 min 62 W/m 22,5 km/h (4 Bft) 97,87 %
06.10.2021 13:32 11,5 C 11,1 C 10,0 C 94 % 1014,6 hPa 0,0 l/m 0 min 2 min 55 W/m 16,1 km/h (3 Bft) 97,87 %
06.10.2021 13:34 11,5 C 11,1 C 10,0 C 94 % 1014,7 hPa 0,0 l/m 0 min 2 min 63 W/m 16,1 km/h (3 Bft) 97,87 %
06.10.2021 13:36 11,4 C 11,1 C 10,0 C 94 % 1014,6 hPa 0,0 l/m 0 min 2 min 66 W/m 25,7 km/h (4 Bft) 97,87 %
06.10.2021 13:38 11,4 C 11,1 C 10,0 C 94 % 1014,6 hPa 0,0 l/m 0 min 2 min 57 W/m 12,9 km/h (3 Bft) 97,83 %
06.10.2021 13:40 11,5 C 11,1 C 10,0 C 94 % 1014,7 hPa 0,0 l/m 0 min 2 min 67 W/m 6,4 km/h (2 Bft) 97,87 %
06.10.2021 13:42 11,5 C 11,1 C 10,0 C 94 % 1014,7 hPa 0,0 l/m 0 min 2 min 120 W/m 22,5 km/h (4 Bft) 97,87 %
06.10.2021 13:44 11,5 C 11,1 C 10,0 C 94 % 1014,7 hPa 0,0 l/m 0 min 2 min 158 W/m 19,3 km/h (3 Bft) 95,74 %
06.10.2021 13:46 11,5 C 11,7 C 10,0 C 94 % 1014,7 hPa 0,0 l/m 0 min 2 min 158 W/m 19,3 km/h (3 Bft) 100,00 %
06.10.2021 13:48 11,5 C 11,7 C 10,0 C 94 % 1014,8 hPa 0,0 l/m 0 min 2 min 101 W/m 25,7 km/h (4 Bft) 100,00 %
06.10.2021 13:50 11,5 C 11,7 C 10,0 C 94 % 1014,8 hPa 0,0 l/m 0 min 2 min 85 W/m 6,4 km/h (2 Bft) 100,00 %
06.10.2021 13:52 11,6 C 11,1 C 10,0 C 94 % 1014,8 hPa 0,0 l/m 0 min 2 min 57 W/m 12,9 km/h (3 Bft) 100,00 %
06.10.2021 13:54 11,6 C 11,1 C 10,0 C 94 % 1014,8 hPa 0,0 l/m 0 min 2 min 53 W/m 16,1 km/h (3 Bft) 100,00 %
06.10.2021 13:56 11,6 C 11,1 C 10,0 C 94 % 1014,8 hPa 0,0 l/m 0 min 2 min 77 W/m 25,7 km/h (4 Bft) 97,87 %
06.10.2021 13:58 11,6 C 11,7 C 10,0 C 94 % 1014,8 hPa 0,0 l/m 0 min 2 min 139 W/m 16,1 km/h (3 Bft) 100,00 %
06.10.2021 14:00 11,6 C 11,7 C 10,6 C 94 % 1014,8 hPa 0,0 l/m 0 min 2 min 201 W/m 12,9 km/h (3 Bft) 100,00 %
06.10.2021 14:02 11,7 C 11,7 C 10,6 C 94 % 1014,8 hPa 0,0 l/m 0 min 2 min 210 W/m 12,9 km/h (3 Bft) 100,00 %
06.10.2021 14:04 11,8 C 11,7 C 10,6 C 94 % 1014,8 hPa 0,0 l/m 0 min 2 min 192 W/m 29,0 km/h (5 Bft) 97,87 %
06.10.2021 14:06 11,8 C 11,7 C 10,6 C 94 % 1014,8 hPa 0,0 l/m 0 min 2 min 168 W/m 12,9 km/h (3 Bft) 97,87 %
06.10.2021 14:08 11,8 C 12,2 C 10,6 C 94 % 1014,9 hPa 0,0 l/m 0 min 2 min 166 W/m 16,1 km/h (3 Bft) 100,00 %
06.10.2021 14:10 11,9 C 11,7 C 10,6 C 94 % 1014,9 hPa 0,0 l/m 0 min 2 min 168 W/m 25,7 km/h (4 Bft) 100,00 %
06.10.2021 14:12 11,9 C 11,7 C 10,6 C 94 % 1014,9 hPa 0,0 l/m 0 min 2 min 167 W/m 19,3 km/h (3 Bft) 95,65 %
06.10.2021 14:14 11,9 C 11,7 C 10,6 C 94 % 1014,8 hPa 0,0 l/m 0 min 0 min 174 W/m 38,6 km/h (5 Bft) 100,00 %
06.10.2021 14:16 11,9 C 12,2 C 10,6 C 93 % 1014,9 hPa 0,0 l/m 0 min 2 min 213 W/m 16,1 km/h (3 Bft) 97,87 %
06.10.2021 14:18 12,0 C 12,2 C 10,6 C 93 % 1014,9 hPa 0,0 l/m 0 min 0 min 237 W/m 16,1 km/h (3 Bft) 100,00 %
06.10.2021 14:20 12,0 C 12,2 C 10,6 C 93 % 1014,9 hPa 0,0 l/m 0 min 2 min 234 W/m 25,7 km/h (4 Bft) 100,00 %
06.10.2021 14:22 12,0 C 12,2 C 10,6 C 93 % 1014,9 hPa 0,0 l/m 0 min 0 min 216 W/m 25,7 km/h (4 Bft) 97,87 %
06.10.2021 14:24 12,1 C 12,2 C 10,6 C 93 % 1014,9 hPa 0,0 l/m 0 min 0 min 220 W/m 19,3 km/h (3 Bft) 97,83 %
06.10.2021 14:26 12,1 C 12,2 C 10,6 C 93 % 1014,9 hPa 0,0 l/m 0 min 0 min 214 W/m 29,0 km/h (5 Bft) 95,74 %
06.10.2021 14:28 12,1 C 12,2 C 10,6 C 93 % 1014,9 hPa 0,0 l/m 0 min 0 min 195 W/m 16,1 km/h (3 Bft) 97,96 %
06.10.2021 14:30 12,2 C 12,2 C 10,6 C 92 % 1015,0 hPa 0,0 l/m 0 min 0 min 196 W/m 32,2 km/h (5 Bft) 97,87 %
06.10.2021 14:32 12,2 C 12,2 C 10,6 C 92 % 1015,0 hPa 0,0 l/m 0 min 0 min 166 W/m 32,2 km/h (5 Bft) 97,87 %
06.10.2021 14:34 12,2 C 12,2 C 10,6 C 92 % 1015,1 hPa 0,0 l/m 0 min 0 min 130 W/m 32,2 km/h (5 Bft) 97,87 %
06.10.2021 14:36 12,2 C 12,2 C 10,6 C 91 % 1015,0 hPa 0,0 l/m 0 min 0 min 135 W/m 19,3 km/h (3 Bft) 97,83 %
06.10.2021 14:38 12,3 C 12,2 C 10,6 C 91 % 1015,0 hPa 0,0 l/m 0 min 0 min 144 W/m 12,9 km/h (3 Bft) 93,62 %
06.10.2021 14:40 12,3 C 12,2 C 10,6 C 91 % 1015,1 hPa 0,0 l/m 0 min 0 min 154 W/m 16,1 km/h (3 Bft) 97,87 %
06.10.2021 14:42 12,4 C 12,2 C 10,6 C 91 % 1015,2 hPa 0,0 l/m 0 min 0 min 137 W/m 22,5 km/h (4 Bft) 97,87 %
06.10.2021 14:44 12,4 C 12,2 C 10,6 C 91 % 1015,2 hPa 0,0 l/m 0 min 0 min 149 W/m 16,1 km/h (3 Bft) 97,87 %
06.10.2021 14:46 12,4 C 12,2 C 10,6 C 91 % 1015,2 hPa 0,0 l/m 0 min 0 min 181 W/m 16,1 km/h (3 Bft) 97,87 %
06.10.2021 14:48 12,4 C 12,2 C 10,6 C 91 % 1015,2 hPa 0,0 l/m 0 min 0 min 214 W/m 19,3 km/h (3 Bft) 95,65 %
06.10.2021 14:50 12,4 C 12,2 C 10,6 C 91 % 1015,2 hPa 0,0 l/m 0 min 0 min 159 W/m 25,7 km/h (4 Bft) 95,74 %
06.10.2021 14:52 12,5 C 12,2 C 10,6 C 91 % 1015,3 hPa 0,0 l/m 0 min 0 min 104 W/m 22,5 km/h (4 Bft) 95,74 %
06.10.2021 14:54 12,5 C 12,2 C 10,6 C 90 % 1015,2 hPa 0,0 l/m 0 min 0 min 125 W/m 22,5 km/h (4 Bft) 93,62 %
06.10.2021 14:56 12,5 C 12,2 C 10,6 C 90 % 1015,3 hPa 0,0 l/m 0 min 0 min 178 W/m 12,9 km/h (3 Bft) 95,74 %
06.10.2021 14:58 12,5 C 12,2 C 10,6 C 91 % 1015,2 hPa 0,0 l/m 0 min 0 min 175 W/m 19,3 km/h (3 Bft) 95,74 %
06.10.2021 15:00 12,5 C 12,2 C 10,6 C 90 % 1015,2 hPa 0,0 l/m 0 min 0 min 136 W/m 22,5 km/h (4 Bft) 95,65 %
06.10.2021 15:02 12,5 C 12,2 C 10,6 C 90 % 1015,3 hPa 0,0 l/m 0 min 0 min 129 W/m 29,0 km/h (5 Bft) 93,75 %
06.10.2021 15:04 12,5 C 12,2 C 10,6 C 90 % 1015,3 hPa 0,0 l/m 0 min 0 min 105 W/m 22,5 km/h (4 Bft) 95,74 %
06.10.2021 15:06 12,5 C 12,2 C 10,6 C 90 % 1015,4 hPa 0,0 l/m 0 min 0 min 112 W/m 29,0 km/h (5 Bft) 93,62 %
06.10.2021 15:08 12,5 C 12,2 C 10,6 C 90 % 1015,4 hPa 0,0 l/m 0 min 0 min 111 W/m 22,5 km/h (4 Bft) 95,74 %
06.10.2021 15:10 12,5 C 12,2 C 10,6 C 90 % 1015,4 hPa 0,0 l/m 0 min 0 min 93 W/m 19,3 km/h (3 Bft) 95,65 %
06.10.2021 15:12 12,5 C 12,2 C 10,6 C 90 % 1015,4 hPa 0,0 l/m 0 min 0 min 91 W/m 16,1 km/h (3 Bft) 95,74 %
06.10.2021 15:14 12,5 C 12,2 C 10,6 C 90 % 1015,4 hPa 0,0 l/m 0 min 0 min 87 W/m 22,5 km/h (4 Bft) 95,74 %
06.10.2021 15:16 12,5 C 12,2 C 10,6 C 90 % 1015,4 hPa 0,0 l/m 0 min 0 min 85 W/m 35,4 km/h (5 Bft) 93,62 %
06.10.2021 15:18 12,4 C 12,2 C 10,6 C 90 % 1015,4 hPa 0,0 l/m 0 min 0 min 81 W/m 19,3 km/h (3 Bft) 93,62 %
06.10.2021 15:20 12,4 C 11,7 C 10,6 C 90 % 1015,5 hPa 0,0 l/m 0 min 0 min 70 W/m 29,0 km/h (5 Bft) 95,74 %
06.10.2021 15:22 12,4 C 11,7 C 10,6 C 90 % 1015,5 hPa 0,0 l/m 0 min 0 min 68 W/m 22,5 km/h (4 Bft) 95,65 %
06.10.2021 15:24 12,4 C 11,7 C 10,6 C 91 % 1015,4 hPa 0,0 l/m 0 min 0 min 68 W/m 22,5 km/h (4 Bft) 95,74 %
06.10.2021 15:26 12,4 C 11,7 C 10,6 C 91 % 1015,5 hPa 0,0 l/m 0 min 0 min 53 W/m 16,1 km/h (3 Bft) 93,62 %
06.10.2021 15:28 12,3 C 11,7 C 10,6 C 91 % 1015,5 hPa 0,0 l/m 0 min 0 min 51 W/m 19,3 km/h (3 Bft) 93,62 %
06.10.2021 15:30 12,3 C 11,7 C 10,6 C 91 % 1015,6 hPa 0,0 l/m 0 min 0 min 64 W/m 12,9 km/h (3 Bft) 95,74 %
06.10.2021 15:32 12,3 C 11,7 C 10,6 C 91 % 1015,6 hPa 0,0 l/m 0 min 0 min 67 W/m 16,1 km/h (3 Bft) 95,83 %
06.10.2021 15:34 12,3 C 11,7 C 10,6 C 91 % 1015,6 hPa 0,0 l/m 0 min 0 min 88 W/m 16,1 km/h (3 Bft) 95,65 %
06.10.2021 15:36 12,3 C 12,2 C 10,6 C 91 % 1015,6 hPa 0,0 l/m 0 min 0 min 97 W/m 16,1 km/h (3 Bft) 95,74 %
06.10.2021 15:38 12,3 C 12,2 C 10,6 C 91 % 1015,6 hPa 0,0 l/m 0 min 0 min 94 W/m 19,3 km/h (3 Bft) 97,87 %
06.10.2021 15:40 12,3 C 12,2 C 10,6 C 91 % 1015,7 hPa 0,0 l/m 0 min 0 min 111 W/m 16,1 km/h (3 Bft) 97,87 %
06.10.2021 15:42 12,4 C 12,2 C 10,6 C 91 % 1015,7 hPa 0,0 l/m 0 min 0 min 89 W/m 19,3 km/h (3 Bft) 97,87 %
06.10.2021 15:44 12,4 C 12,2 C 10,6 C 91 % 1015,7 hPa 0,0 l/m 0 min 0 min 83 W/m 12,9 km/h (3 Bft) 97,87 %
06.10.2021 15:46 12,4 C 12,2 C 10,6 C 91 % 1015,8 hPa 0,0 l/m 0 min 2 min 94 W/m 22,5 km/h (4 Bft) 97,83 %
06.10.2021 15:48 12,4 C 12,2 C 10,6 C 91 % 1015,8 hPa 0,0 l/m 0 min 0 min 89 W/m 16,1 km/h (3 Bft) 97,87 %
06.10.2021 15:50 12,5 C 12,2 C 10,6 C 91 % 1015,8 hPa 0,0 l/m 0 min 0 min 73 W/m 16,1 km/h (3 Bft) 97,87 %
06.10.2021 15:52 12,5 C 12,2 C 10,6 C 91 % 1015,8 hPa 0,0 l/m 0 min 0 min 77 W/m 25,7 km/h (4 Bft) 100,00 %
06.10.2021 15:54 12,5 C 12,2 C 10,6 C 91 % 1015,8 hPa 0,0 l/m 0 min 0 min 64 W/m 22,5 km/h (4 Bft) 100,00 %
06.10.2021 15:56 12,5 C 12,2 C 10,6 C 91 % 1015,8 hPa 0,0 l/m 0 min 0 min 51 W/m 19,3 km/h (3 Bft) 100,00 %
06.10.2021 15:58 12,5 C 12,2 C 10,6 C 91 % 1015,9 hPa 0,0 l/m 0 min 0 min 51 W/m 12,9 km/h (3 Bft) 100,00 %
06.10.2021 16:00 12,5 C 12,2 C 10,6 C 91 % 1016,0 hPa 0,0 l/m 0 min 2 min 49 W/m 12,9 km/h (3 Bft) 100,00 %
06.10.2021 16:02 12,5 C 12,2 C 10,6 C 91 % 1015,9 hPa 0,0 l/m 0 min 0 min 50 W/m 12,9 km/h (3 Bft) 100,00 %
06.10.2021 16:04 12,5 C 12,2 C 10,6 C 91 % 1016,0 hPa 0,0 l/m 0 min 0 min 51 W/m 19,3 km/h (3 Bft) 97,87 %
06.10.2021 16:06 12,5 C 12,2 C 10,6 C 91 % 1016,1 hPa 0,0 l/m 0 min 0 min 58 W/m 22,5 km/h (4 Bft) 100,00 %
06.10.2021 16:08 12,5 C 12,2 C 10,6 C 91 % 1016,1 hPa 0,0 l/m 0 min 0 min 68 W/m 19,3 km/h (3 Bft) 100,00 %
06.10.2021 16:10 12,5 C 12,2 C 10,6 C 91 % 1016,0 hPa 0,0 l/m 0 min 2 min 68 W/m 12,9 km/h (3 Bft) 100,00 %
06.10.2021 16:12 12,5 C 11,7 C 10,6 C 91 % 1016,0 hPa 0,0 l/m 0 min 2 min 68 W/m 22,5 km/h (4 Bft) 100,00 %
06.10.2021 16:14 12,5 C 11,7 C 10,6 C 91 % 1016,1 hPa 0,2 l/m 0 min 2 min 83 W/m 19,3 km/h (3 Bft) 100,00 %
06.10.2021 16:16 12,5 C 11,7 C 10,6 C 92 % 1016,1 hPa 0,0 l/m 0 min 2 min 91 W/m 12,9 km/h (3 Bft) 100,00 %
06.10.2021 16:18 12,5 C 11,7 C 10,6 C 92 % 1016,1 hPa 0,0 l/m 0 min 2 min 83 W/m 19,3 km/h (3 Bft) 100,00 %
06.10.2021 16:20 12,4 C 11,7 C 10,6 C 92 % 1016,1 hPa 0,0 l/m 0 min 2 min 64 W/m 16,1 km/h (3 Bft) 97,87 %
06.10.2021 16:22 12,4 C 11,7 C 10,6 C 92 % 1016,1 hPa 0,0 l/m 0 min 2 min 53 W/m 19,3 km/h (3 Bft) 100,00 %
06.10.2021 16:24 12,3 C 11,7 C 10,6 C 92 % 1016,1 hPa 0,0 l/m 0 min 0 min 46 W/m 16,1 km/h (3 Bft) 100,00 %
06.10.2021 16:26 12,3 C 11,7 C 10,6 C 93 % 1016,2 hPa 0,0 l/m 0 min 0 min 45 W/m 12,9 km/h (3 Bft) 100,00 %
06.10.2021 16:28 12,2 C 11,7 C 10,6 C 93 % 1016,2 hPa 0,0 l/m 0 min 0 min 33 W/m 19,3 km/h (3 Bft) 97,87 %
06.10.2021 16:30 12,2 C 11,7 C 10,6 C 93 % 1016,2 hPa 0,0 l/m 0 min 0 min 41 W/m 19,3 km/h (3 Bft) 100,00 %
06.10.2021 16:32 12,1 C 11,7 C 10,6 C 93 % 1016,2 hPa 0,0 l/m 0 min 0 min 82 W/m 16,1 km/h (3 Bft) 97,87 %
06.10.2021 16:34 12,1 C 11,7 C 10,6 C 93 % 1016,3 hPa 0,0 l/m 0 min 0 min 144 W/m 6,4 km/h (2 Bft) 100,00 %
06.10.2021 16:36 12,2 C 11,7 C 10,6 C 93 % 1016,3 hPa 0,0 l/m 0 min 0 min 139 W/m 12,9 km/h (3 Bft) 100,00 %
06.10.2021 16:38 12,2 C 11,7 C 10,6 C 94 % 1016,3 hPa 0,0 l/m 0 min 0 min 100 W/m 19,3 km/h (3 Bft) 100,00 %
06.10.2021 16:40 12,2 C 11,7 C 10,6 C 94 % 1016,3 hPa 0,0 l/m 0 min 0 min 102 W/m 12,9 km/h (3 Bft) 100,00 %
06.10.2021 16:42 12,2 C 11,7 C 10,6 C 94 % 1016,4 hPa 0,0 l/m 0 min 0 min 84 W/m 19,3 km/h (3 Bft) 97,87 %
06.10.2021 16:44 12,3 C 11,7 C 10,6 C 94 % 1016,3 hPa 0,0 l/m 0 min 0 min 71 W/m 16,1 km/h (3 Bft) 100,00 %
06.10.2021 16:46 12,2 C 11,7 C 10,6 C 94 % 1016,3 hPa 0,0 l/m 0 min 0 min 54 W/m 25,7 km/h (4 Bft) 97,83 %
06.10.2021 16:48 12,2 C 11,7 C 10,6 C 94 % 1016,4 hPa 0,0 l/m 0 min 0 min 45 W/m 9,7 km/h (2 Bft) 100,00 %
06.10.2021 16:50 12,2 C 11,7 C 10,6 C 94 % 1016,4 hPa 0,0 l/m 0 min 0 min 46 W/m 12,9 km/h (3 Bft) 100,00 %
06.10.2021 16:52 12,2 C 11,7 C 10,6 C 94 % 1016,4 hPa 0,0 l/m 0 min 0 min 46 W/m 16,1 km/h (3 Bft) 100,00 %
06.10.2021 16:54 12,2 C 11,7 C 10,6 C 94 % 1016,5 hPa 0,0 l/m 0 min 0 min 43 W/m 19,3 km/h (3 Bft) 100,00 %
06.10.2021 16:56 12,3 C 11,7 C 10,6 C 94 % 1016,5 hPa 0,0 l/m 0 min 0 min 53 W/m 19,3 km/h (3 Bft) 100,00 %
06.10.2021 16:58 12,2 C 11,7 C 10,6 C 94 % 1016,5 hPa 0,0 l/m 0 min 0 min 67 W/m 16,1 km/h (3 Bft) 97,83 %
06.10.2021 17:00 12,3 C 12,2 C 10,6 C 94 % 1016,5 hPa 0,0 l/m 0 min 0 min 112 W/m 19,3 km/h (3 Bft) 100,00 %
06.10.2021 17:02 12,3 C 12,2 C 10,6 C 94 % 1016,5 hPa 0,0 l/m 0 min 0 min 95 W/m 16,1 km/h (3 Bft) 97,87 %
06.10.2021 17:04 12,3 C 12,2 C 10,6 C 94 % 1016,6 hPa 0,0 l/m 0 min 0 min 109 W/m 22,5 km/h (4 Bft) 100,00 %
06.10.2021 17:06 12,3 C 12,2 C 10,6 C 94 % 1016,6 hPa 0,0 l/m 0 min 0 min 55 W/m 19,3 km/h (3 Bft) 97,87 %
06.10.2021 17:08 12,3 C 12,2 C 10,6 C 94 % 1016,6 hPa 0,0 l/m 0 min 0 min 52 W/m 12,9 km/h (3 Bft) 95,74 %
06.10.2021 17:10 12,4 C 12,2 C 10,6 C 94 % 1016,6 hPa 0,0 l/m 0 min 0 min 61 W/m 12,9 km/h (3 Bft) 97,83 %
06.10.2021 17:12 12,4 C 12,2 C 11,1 C 94 % 1016,7 hPa 0,0 l/m 0 min 0 min 60 W/m 12,9 km/h (3 Bft) 100,00 %
06.10.2021 17:14 12,4 C 12,2 C 11,1 C 94 % 1016,7 hPa 0,0 l/m 0 min 2 min 50 W/m 22,5 km/h (4 Bft) 100,00 %
06.10.2021 17:16 12,4 C 11,7 C 11,1 C 94 % 1016,6 hPa 0,2 l/m 0 min 2 min 41 W/m 12,9 km/h (3 Bft) 100,00 %
06.10.2021 17:18 12,4 C 11,7 C 10,6 C 94 % 1016,7 hPa 0,0 l/m 0 min 2 min 39 W/m 22,5 km/h (4 Bft) 97,87 %
06.10.2021 17:20 12,3 C 11,7 C 10,6 C 94 % 1016,7 hPa 0,0 l/m 0 min 0 min 41 W/m 19,3 km/h (3 Bft) 95,65 %
06.10.2021 17:22 12,3 C 11,7 C 10,6 C 94 % 1016,7 hPa 0,0 l/m 0 min 0 min 35 W/m 16,1 km/h (3 Bft) 95,74 %
06.10.2021 17:24 12,3 C 11,7 C 10,6 C 94 % 1016,8 hPa 0,0 l/m 0 min 0 min 44 W/m 19,3 km/h (3 Bft) 95,74 %
06.10.2021 17:26 12,3 C 11,7 C 10,6 C 94 % 1016,8 hPa 0,0 l/m 0 min 0 min 34 W/m 16,1 km/h (3 Bft) 95,74 %
06.10.2021 17:28 12,3 C 11,7 C 10,6 C 94 % 1016,7 hPa 0,0 l/m 0 min 0 min 39 W/m 12,9 km/h (3 Bft) 95,74 %
06.10.2021 17:30 12,2 C 11,7 C 10,6 C 94 % 1016,8 hPa 0,0 l/m 0 min 0 min 37 W/m 12,9 km/h (3 Bft) 95,74 %
06.10.2021 17:32 12,2 C 11,7 C 10,6 C 94 % 1016,9 hPa 0,0 l/m 0 min 0 min 35 W/m 22,5 km/h (4 Bft) 93,48 %
06.10.2021 17:34 12,1 C 11,7 C 10,6 C 94 % 1016,8 hPa 0,0 l/m 0 min 2 min 25 W/m 19,3 km/h (3 Bft) 93,62 %
06.10.2021 17:36 12,1 C 11,7 C 10,6 C 94 % 1016,9 hPa 0,0 l/m 0 min 2 min 27 W/m 25,7 km/h (4 Bft) 95,74 %
06.10.2021 17:38 12,1 C 11,7 C 10,6 C 94 % 1016,9 hPa 0,0 l/m 0 min 2 min 46 W/m 16,1 km/h (3 Bft) 91,49 %
06.10.2021 17:40 12,1 C 11,7 C 10,6 C 94 % 1016,8 hPa 0,0 l/m 0 min 2 min 66 W/m 12,9 km/h (3 Bft) 91,49 %
06.10.2021 17:42 12,1 C 11,7 C 10,6 C 94 % 1016,9 hPa 0,0 l/m 0 min 2 min 43 W/m 22,5 km/h (4 Bft) 93,62 %
06.10.2021 17:44 12,1 C 11,7 C 10,6 C 95 % 1016,8 hPa 0,0 l/m 0 min 0 min 33 W/m 16,1 km/h (3 Bft) 95,74 %
06.10.2021 17:46 12,1 C 11,7 C 10,6 C 95 % 1016,9 hPa 0,0 l/m 0 min 0 min 30 W/m 16,1 km/h (3 Bft) 93,48 %
06.10.2021 17:48 12,1 C 11,7 C 10,6 C 95 % 1016,9 hPa 0,0 l/m 0 min 0 min 30 W/m 19,3 km/h (3 Bft) 95,74 %
06.10.2021 17:50 12,0 C 11,7 C 10,6 C 95 % 1017,0 hPa 0,0 l/m 0 min 0 min 22 W/m 12,9 km/h (3 Bft) 95,74 %
06.10.2021 17:52 12,0 C 11,7 C 10,6 C 95 % 1017,0 hPa 0,0 l/m 0 min 0 min 22 W/m 19,3 km/h (3 Bft) 95,74 %
06.10.2021 17:54 12,0 C 11,7 C 10,6 C 95 % 1017,0 hPa 0,0 l/m 0 min 0 min 22 W/m 16,1 km/h (3 Bft) 93,62 %
06.10.2021 17:56 12,0 C 11,1 C 10,6 C 95 % 1017,0 hPa 0,2 l/m 0 min 2 min 24 W/m 16,1 km/h (3 Bft) 93,48 %
06.10.2021 17:58 12,0 C 11,1 C 10,6 C 95 % 1017,0 hPa 0,0 l/m 0 min 2 min 30 W/m 12,9 km/h (3 Bft) 95,74 %
06.10.2021 18:00 12,0 C 11,1 C 10,6 C 95 % 1017,1 hPa 0,0 l/m 0 min 2 min 30 W/m 16,1 km/h (3 Bft) 95,74 %
06.10.2021 18:02 12,0 C 11,1 C 10,6 C 95 % 1017,1 hPa 0,0 l/m 0 min 0 min 30 W/m 16,1 km/h (3 Bft) 95,83 %
06.10.2021 18:04 12,0 C 11,1 C 10,6 C 95 % 1017,1 hPa 0,0 l/m 0 min 0 min 23 W/m 19,3 km/h (3 Bft) 95,74 %
06.10.2021 18:08 12,0 C 11,1 C 10,6 C 95 % 1017,2 hPa 0,2 l/m 0 min 0 min 18 W/m 19,3 km/h (3 Bft) 95,18 %
06.10.2021 18:10 12,0 C 11,1 C 10,6 C 95 % 1017,2 hPa 0,0 l/m 0 min 0 min 13 W/m 19,3 km/h (3 Bft) 95,65 %
06.10.2021 18:12 12,0 C 11,1 C 10,6 C 95 % 1017,2 hPa 0,0 l/m 0 min 0 min 11 W/m 12,9 km/h (3 Bft) 95,74 %
06.10.2021 18:14 12,0 C 11,1 C 10,6 C 95 % 1017,3 hPa 0,0 l/m 0 min 0 min 11 W/m 16,1 km/h (3 Bft) 97,87 %
06.10.2021 18:16 12,0 C 11,1 C 10,6 C 95 % 1017,4 hPa 0,0 l/m 0 min 0 min 9 W/m 9,7 km/h (2 Bft) 93,62 %
06.10.2021 18:18 12,0 C 11,1 C 10,6 C 95 % 1017,5 hPa 0,0 l/m 0 min 0 min 4 W/m 12,9 km/h (3 Bft) 97,87 %
06.10.2021 18:20 11,9 C 11,1 C 10,6 C 95 % 1017,5 hPa 0,0 l/m 0 min 0 min 3 W/m 19,3 km/h (3 Bft) 97,87 %
06.10.2021 18:22 11,9 C 11,1 C 10,6 C 95 % 1017,5 hPa 0,0 l/m 0 min 0 min 5 W/m 19,3 km/h (3 Bft) 95,74 %
06.10.2021 18:24 11,9 C 11,1 C 10,6 C 95 % 1017,5 hPa 0,0 l/m 0 min 2 min 5 W/m 19,3 km/h (3 Bft) 97,83 %
06.10.2021 18:26 11,9 C 11,1 C 10,6 C 95 % 1017,6 hPa 0,0 l/m 0 min 2 min 2 W/m 16,1 km/h (3 Bft) 97,87 %
06.10.2021 18:28 11,9 C 11,1 C 10,6 C 95 % 1017,7 hPa 0,0 l/m 0 min 0 min 0 W/m 16,1 km/h (3 Bft) 97,87 %
06.10.2021 18:30 11,9 C 11,1 C 10,6 C 95 % 1017,7 hPa 0,0 l/m 0 min 0 min 0 W/m 16,1 km/h (3 Bft) 100,00 %
06.10.2021 18:32 11,9 C 11,1 C 10,6 C 95 % 1017,8 hPa 0,0 l/m 0 min 2 min 0 W/m 6,4 km/h (2 Bft) 100,00 %
06.10.2021 18:34 11,9 C 11,1 C 10,6 C 95 % 1017,6 hPa 0,0 l/m 0 min 2 min 0 W/m 9,7 km/h (2 Bft) 100,00 %
06.10.2021 18:36 11,9 C 11,1 C 10,6 C 95 % 1017,7 hPa 0,0 l/m 0 min 2 min 0 W/m 12,9 km/h (3 Bft) 97,87 %
06.10.2021 18:38 11,9 C 11,1 C 10,6 C 95 % 1017,7 hPa 0,0 l/m 0 min 2 min 5 W/m 12,9 km/h (3 Bft) 100,00 %
06.10.2021 18:40 11,9 C 11,1 C 10,6 C 96 % 1017,8 hPa 0,0 l/m 0 min 2 min 5 W/m 16,1 km/h (3 Bft) 97,87 %
06.10.2021 18:42 11,9 C 11,1 C 10,6 C 96 % 1017,8 hPa 0,0 l/m 0 min 2 min 5 W/m 9,7 km/h (2 Bft) 97,87 %
06.10.2021 18:44 11,9 C 11,1 C 10,6 C 96 % 1017,8 hPa 0,0 l/m 0 min 2 min 8 W/m 19,3 km/h (3 Bft) 100,00 %
06.10.2021 18:46 11,9 C 11,1 C 10,6 C 96 % 1017,8 hPa 0,0 l/m 0 min 2 min 8 W/m 12,9 km/h (3 Bft) 100,00 %
06.10.2021 18:48 11,9 C 11,1 C 10,6 C 96 % 1017,8 hPa 0,0 l/m 0 min 2 min 3 W/m 12,9 km/h (3 Bft) 100,00 %
06.10.2021 18:50 11,9 C 11,1 C 10,6 C 96 % 1017,8 hPa 0,0 l/m 0 min 2 min 0 W/m 12,9 km/h (3 Bft) 100,00 %
06.10.2021 18:52 11,9 C 11,1 C 10,6 C 96 % 1017,9 hPa 0,0 l/m 0 min 2 min 0 W/m 12,9 km/h (3 Bft) 100,00 %
06.10.2021 18:54 11,9 C 11,1 C 10,6 C 96 % 1017,9 hPa 0,0 l/m 0 min 2 min 0 W/m 12,9 km/h (3 Bft) 100,00 %
06.10.2021 18:56 11,9 C 11,1 C 10,6 C 96 % 1017,9 hPa 0,0 l/m 0 min 2 min 0 W/m 16,1 km/h (3 Bft) 100,00 %
06.10.2021 18:58 11,9 C 11,1 C 10,6 C 96 % 1018,0 hPa 0,0 l/m 0 min 2 min 0 W/m 12,9 km/h (3 Bft) 100,00 %
06.10.2021 19:00 11,9 C 11,1 C 10,6 C 96 % 1018,0 hPa 0,0 l/m 0 min 2 min 0 W/m 12,9 km/h (3 Bft) 97,83 %
06.10.2021 19:02 11,9 C 11,1 C 10,6 C 96 % 1018,1 hPa 0,2 l/m 0 min 2 min 0 W/m 12,9 km/h (3 Bft) 100,00 %
06.10.2021 19:04 11,9 C 11,1 C 10,6 C 96 % 1018,1 hPa 0,0 l/m 0 min 2 min 0 W/m 12,9 km/h (3 Bft) 100,00 %
06.10.2021 19:06 11,9 C 11,1 C 10,6 C 96 % 1018,1 hPa 0,0 l/m 0 min 2 min 0 W/m 9,7 km/h (2 Bft) 100,00 %
06.10.2021 19:08 11,9 C 11,1 C 10,6 C 96 % 1018,2 hPa 0,0 l/m 0 min 0 min 0 W/m 6,4 km/h (2 Bft) 100,00 %
06.10.2021 19:10 11,9 C 11,1 C 10,6 C 96 % 1018,2 hPa 0,0 l/m 0 min 0 min 0 W/m 16,1 km/h (3 Bft) 97,83 %
06.10.2021 19:12 11,9 C 11,1 C 10,6 C 96 % 1018,2 hPa 0,0 l/m 0 min 0 min 0 W/m 12,9 km/h (3 Bft) 97,87 %
06.10.2021 19:14 11,9 C 11,1 C 10,6 C 96 % 1018,3 hPa 0,0 l/m 0 min 0 min 0 W/m 9,7 km/h (2 Bft) 97,87 %
06.10.2021 19:16 11,9 C 11,1 C 10,6 C 96 % 1018,3 hPa 0,0 l/m 0 min 0 min 0 W/m 9,7 km/h (2 Bft) 97,87 %
06.10.2021 19:18 11,9 C 11,1 C 10,6 C 96 % 1018,4 hPa 0,0 l/m 0 min 0 min 0 W/m 16,1 km/h (3 Bft) 97,87 %
06.10.2021 19:20 11,9 C 11,1 C 10,6 C 96 % 1018,4 hPa 0,0 l/m 0 min 0 min 0 W/m 19,3 km/h (3 Bft) 97,87 %
06.10.2021 19:22 11,9 C 11,1 C 10,6 C 96 % 1018,4 hPa 0,0 l/m 0 min 0 min 0 W/m 12,9 km/h (3 Bft) 97,83 %
06.10.2021 19:24 11,9 C 11,1 C 10,6 C 96 % 1018,5 hPa 0,0 l/m 0 min 0 min 0 W/m 19,3 km/h (3 Bft) 97,87 %
06.10.2021 19:26 11,9 C 11,1 C 10,6 C 96 % 1018,5 hPa 0,0 l/m 0 min 0 min 0 W/m 16,1 km/h (3 Bft) 97,87 %
06.10.2021 19:28 11,9 C 11,1 C 10,6 C 96 % 1018,6 hPa 0,0 l/m 0 min 0 min 0 W/m 12,9 km/h (3 Bft) 97,87 %
06.10.2021 19:30 11,9 C 11,1 C 10,6 C 96 % 1018,5 hPa 0,2 l/m 0 min 0 min 0 W/m 25,7 km/h (4 Bft) 97,87 %
06.10.2021 19:32 11,9 C 11,1 C 10,6 C 96 % 1018,6 hPa 0,0 l/m 0 min 0 min 0 W/m 16,1 km/h (3 Bft) 95,74 %
06.10.2021 19:34 11,9 C 11,1 C 10,6 C 96 % 1018,6 hPa 0,0 l/m 0 min 0 min 0 W/m 12,9 km/h (3 Bft) 97,83 %
06.10.2021 19:36 11,9 C 11,1 C 11,1 C 96 % 1018,7 hPa 0,0 l/m 0 min 0 min 0 W/m 12,9 km/h (3 Bft) 97,87 %
06.10.2021 19:38 11,9 C 11,1 C 11,1 C 96 % 1018,7 hPa 0,0 l/m 0 min 0 min 0 W/m 16,1 km/h (3 Bft) 97,87 %
06.10.2021 19:40 11,9 C 11,1 C 11,1 C 96 % 1018,7 hPa 0,0 l/m 0 min 0 min 0 W/m 12,9 km/h (3 Bft) 95,74 %
06.10.2021 19:42 11,9 C 11,1 C 11,1 C 96 % 1018,8 hPa 0,0 l/m 0 min 0 min 0 W/m 9,7 km/h (2 Bft) 97,87 %
06.10.2021 19:44 11,9 C 11,1 C 11,1 C 96 % 1018,8 hPa 0,0 l/m 0 min 0 min 0 W/m 12,9 km/h (3 Bft) 100,00 %
06.10.2021 19:46 11,9 C 11,1 C 11,1 C 96 % 1018,8 hPa 0,0 l/m 0 min 0 min 0 W/m 19,3 km/h (3 Bft) 100,00 %
06.10.2021 19:48 11,9 C 11,1 C 11,1 C 96 % 1018,9 hPa 0,0 l/m 0 min 0 min 0 W/m 12,9 km/h (3 Bft) 100,00 %
06.10.2021 19:50 11,9 C 11,1 C 11,1 C 96 % 1019,0 hPa 0,0 l/m 0 min 0 min 0 W/m 16,1 km/h (3 Bft) 100,00 %
06.10.2021 19:52 11,9 C 11,1 C 11,1 C 96 % 1019,0 hPa 0,0 l/m 0 min 0 min 0 W/m 19,3 km/h (3 Bft) 100,00 %
06.10.2021 19:54 11,9 C 11,1 C 11,1 C 96 % 1019,0 hPa 0,0 l/m 0 min 0 min 0 W/m 16,1 km/h (3 Bft) 100,00 %
06.10.2021 19:56 11,9 C 11,1 C 11,1 C 96 % 1019,0 hPa 0,0 l/m 0 min 0 min 0 W/m 22,5 km/h (4 Bft) 100,00 %
06.10.2021 19:58 11,9 C 11,1 C 11,1 C 96 % 1019,0 hPa 0,0 l/m 0 min 0 min 0 W/m 19,3 km/h (3 Bft) 97,83 %
06.10.2021 20:00 11,9 C 11,1 C 11,1 C 96 % 1019,1 hPa 0,0 l/m 0 min 0 min 0 W/m 9,7 km/h (2 Bft) 100,00 %
06.10.2021 20:02 11,9 C 11,1 C 11,1 C 96 % 1019,1 hPa 0,0 l/m 0 min 0 min 0 W/m 16,1 km/h (3 Bft) 97,92 %
06.10.2021 20:04 11,9 C 11,1 C 11,1 C 96 % 1019,2 hPa 0,0 l/m 0 min 0 min 0 W/m 12,9 km/h (3 Bft) 100,00 %
06.10.2021 20:06 11,9 C 11,1 C 11,1 C 96 % 1019,1 hPa 0,0 l/m 0 min 0 min 0 W/m 12,9 km/h (3 Bft) 97,87 %
06.10.2021 20:08 11,9 C 11,1 C 11,1 C 96 % 1019,2 hPa 0,0 l/m 0 min 0 min 0 W/m 6,4 km/h (2 Bft) 100,00 %
06.10.2021 20:10 11,9 C 11,1 C 11,1 C 96 % 1019,3 hPa 0,0 l/m 0 min 0 min 0 W/m 19,3 km/h (3 Bft) 97,83 %
06.10.2021 20:12 11,9 C 11,1 C 11,1 C 96 % 1019,3 hPa 0,0 l/m 0 min 0 min 0 W/m 12,9 km/h (3 Bft) 97,87 %
06.10.2021 20:14 11,9 C 11,1 C 11,1 C 96 % 1019,3 hPa 0,0 l/m 0 min 0 min 0 W/m 16,1 km/h (3 Bft) 97,87 %
06.10.2021 20:16 11,9 C 11,1 C 11,1 C 96 % 1019,4 hPa 0,0 l/m 0 min 0 min 0 W/m 12,9 km/h (3 Bft) 97,87 %
06.10.2021 20:18 11,9 C 11,1 C 11,1 C 96 % 1019,4 hPa 0,0 l/m 0 min 0 min 0 W/m 12,9 km/h (3 Bft) 97,87 %
06.10.2021 20:20 12,0 C 11,1 C 11,1 C 96 % 1019,4 hPa 0,0 l/m 0 min 0 min 0 W/m 12,9 km/h (3 Bft) 98,25 %
06.10.2021 20:22 11,9 C 11,1 C 11,1 C 96 % 1019,4 hPa 0,0 l/m 0 min 0 min 0 W/m 16,1 km/h (3 Bft) 97,87 %
06.10.2021 20:24 12,0 C 11,1 C 11,1 C 96 % 1019,5 hPa 0,0 l/m 0 min 0 min 0 W/m 12,9 km/h (3 Bft) 95,74 %
06.10.2021 20:26 12,0 C 11,1 C 11,1 C 96 % 1019,5 hPa 0,0 l/m 0 min 0 min 0 W/m 9,7 km/h (2 Bft) 97,14 %
06.10.2021 20:28 12,0 C 11,1 C 11,1 C 96 % 1019,5 hPa 0,0 l/m 0 min 0 min 0 W/m 9,7 km/h (2 Bft) 96,55 %
06.10.2021 20:30 12,0 C 11,1 C 11,1 C 96 % 1019,6 hPa 0,0 l/m 0 min 0 min 0 W/m 12,9 km/h (3 Bft) 97,83 %
06.10.2021 20:32 12,0 C 11,1 C 11,1 C 96 % 1019,7 hPa 0,0 l/m 0 min 0 min 0 W/m 6,4 km/h (2 Bft) 95,74 %
06.10.2021 20:34 12,0 C 11,1 C 11,1 C 96 % 1019,8 hPa 0,0 l/m 0 min 0 min 0 W/m 12,9 km/h (3 Bft) 97,87 %
06.10.2021 20:36 12,0 C 11,1 C 11,1 C 96 % 1019,8 hPa 0,0 l/m 0 min 0 min 0 W/m 16,1 km/h (3 Bft) 95,74 %
06.10.2021 20:38 12,0 C 11,1 C 11,1 C 96 % 1019,9 hPa 0,0 l/m 0 min 0 min 0 W/m 12,9 km/h (3 Bft) 93,62 %
06.10.2021 20:40 12,0 C 11,1 C 11,1 C 96 % 1019,9 hPa 0,0 l/m 0 min 0 min 0 W/m 6,4 km/h (2 Bft) 95,74 %
06.10.2021 20:42 12,0 C 11,1 C 11,1 C 96 % 1019,9 hPa 0,0 l/m 0 min 0 min 0 W/m 12,9 km/h (3 Bft) 95,65 %
06.10.2021 20:44 12,0 C 11,1 C 11,1 C 96 % 1019,9 hPa 0,0 l/m 0 min 0 min 0 W/m 12,9 km/h (3 Bft) 95,74 %
06.10.2021 20:46 12,0 C 11,7 C 11,1 C 96 % 1019,9 hPa 0,0 l/m 0 min 0 min 0 W/m 19,3 km/h (3 Bft) 93,62 %
06.10.2021 20:48 12,0 C 11,7 C 11,1 C 96 % 1019,9 hPa 0,0 l/m 0 min 0 min 0 W/m 9,7 km/h (2 Bft) 91,49 %
06.10.2021 20:50 12,0 C 11,7 C 11,1 C 96 % 1019,9 hPa 0,0 l/m 0 min 0 min 0 W/m 12,9 km/h (3 Bft) 95,74 %
06.10.2021 20:52 12,0 C 11,1 C 11,1 C 96 % 1020,0 hPa 0,0 l/m 0 min 0 min 0 W/m 16,1 km/h (3 Bft) 95,74 %
06.10.2021 20:54 12,0 C 11,1 C 11,1 C 96 % 1020,0 hPa 0,0 l/m 0 min 0 min 0 W/m 12,9 km/h (3 Bft) 95,65 %
06.10.2021 20:56 12,0 C 11,1 C 11,1 C 96 % 1020,0 hPa 0,0 l/m 0 min 0 min 0 W/m 6,4 km/h (2 Bft) 97,87 %
06.10.2021 20:58 12,0 C 11,1 C 11,1 C 96 % 1020,1 hPa 0,0 l/m 0 min 0 min 0 W/m 9,7 km/h (2 Bft) 97,87 %
06.10.2021 21:00 12,0 C 11,1 C 11,1 C 96 % 1020,1 hPa 0,0 l/m 0 min 0 min 0 W/m 6,4 km/h (2 Bft) 97,87 %
06.10.2021 21:02 12,0 C 11,1 C 11,1 C 96 % 1020,2 hPa 0,0 l/m 0 min 0 min 0 W/m 12,9 km/h (3 Bft) 95,74 %
06.10.2021 21:04 12,0 C 11,1 C 11,1 C 96 % 1020,2 hPa 0,0 l/m 0 min 0 min 0 W/m 12,9 km/h (3 Bft) 95,74 %
06.10.2021 21:06 12,0 C 11,1 C 11,1 C 96 % 1020,1 hPa 0,0 l/m 0 min 0 min 0 W/m 9,7 km/h (2 Bft) 95,65 %
06.10.2021 21:08 12,0 C 11,1 C 11,1 C 96 % 1020,3 hPa 0,0 l/m 0 min 0 min 0 W/m 16,1 km/h (3 Bft) 93,62 %
06.10.2021 21:10 12,0 C 11,1 C 11,1 C 96 % 1020,2 hPa 0,0 l/m 0 min 0 min 0 W/m 6,4 km/h (2 Bft) 95,74 %
06.10.2021 21:12 12,0 C 11,1 C 11,1 C 96 % 1020,3 hPa 0,0 l/m 0 min 0 min 0 W/m 6,4 km/h (2 Bft) 93,62 %
06.10.2021 21:14 12,0 C 11,1 C 11,1 C 96 % 1020,3 hPa 0,0 l/m 0 min 0 min 0 W/m 9,7 km/h (2 Bft) 95,74 %
06.10.2021 21:16 12,0 C 11,1 C 11,1 C 96 % 1020,3 hPa 0,0 l/m 0 min 0 min 0 W/m 9,7 km/h (2 Bft) 95,74 %
06.10.2021 21:18 12,0 C 11,1 C 11,1 C 96 % 1020,4 hPa 0,0 l/m 0 min 0 min 0 W/m 6,4 km/h (2 Bft) 95,65 %
06.10.2021 21:20 11,9 C 11,1 C 11,1 C 96 % 1020,4 hPa 0,0 l/m 0 min 0 min 0 W/m 3,2 km/h (1 Bft) 93,62 %
06.10.2021 21:22 11,9 C 11,1 C 11,1 C 96 % 1020,4 hPa 0,0 l/m 0 min 0 min 0 W/m 6,4 km/h (2 Bft) 93,62 %
06.10.2021 21:24 11,9 C 11,1 C 11,1 C 96 % 1020,4 hPa 0,0 l/m 0 min 0 min 0 W/m 6,4 km/h (2 Bft) 95,74 %
06.10.2021 21:26 11,9 C 11,1 C 11,1 C 96 % 1020,4 hPa 0,0 l/m 0 min 0 min 0 W/m 12,9 km/h (3 Bft) 95,74 %
06.10.2021 21:28 11,9 C 11,1 C 11,1 C 96 % 1020,5 hPa 0,0 l/m 0 min 0 min 0 W/m 9,7 km/h (2 Bft) 97,87 %
06.10.2021 21:30 11,9 C 11,1 C 11,1 C 96 % 1020,5 hPa 0,0 l/m 0 min 0 min 0 W/m 6,4 km/h (2 Bft) 95,65 %
06.10.2021 21:32 11,9 C 11,1 C 11,1 C 96 % 1020,5 hPa 0,0 l/m 0 min 0 min 0 W/m 16,1 km/h (3 Bft) 97,87 %
06.10.2021 21:34 11,9 C 11,1 C 11,1 C 96 % 1020,5 hPa 0,0 l/m 0 min 0 min 0 W/m 3,2 km/h (1 Bft) 97,87 %
06.10.2021 21:36 11,9 C 11,1 C 11,1 C 96 % 1020,6 hPa 0,0 l/m 0 min 0 min 0 W/m 6,4 km/h (2 Bft) 100,00 %
06.10.2021 21:38 11,9 C 11,1 C 11,1 C 96 % 1020,6 hPa 0,0 l/m 0 min 0 min 0 W/m 6,4 km/h (2 Bft) 97,87 %
06.10.2021 21:40 11,9 C 11,1 C 11,1 C 96 % 1020,6 hPa 0,0 l/m 0 min 2 min 0 W/m 6,4 km/h (2 Bft) 100,00 %
06.10.2021 21:42 11,9 C 11,1 C 11,1 C 96 % 1020,7 hPa 0,0 l/m 0 min 2 min 0 W/m 9,7 km/h (2 Bft) 97,22 %
06.10.2021 21:44 11,9 C 11,1 C 11,1 C 96 % 1020,7 hPa 0,0 l/m 0 min 0 min 0 W/m 9,7 km/h (2 Bft) 100,00 %
06.10.2021 21:46 11,9 C 11,1 C 11,1 C 96 % 1020,7 hPa 0,0 l/m 0 min 0 min 0 W/m 6,4 km/h (2 Bft) 97,87 %
06.10.2021 21:48 11,9 C 11,1 C 11,1 C 96 % 1020,7 hPa 0,0 l/m 0 min 0 min 0 W/m 6,4 km/h (2 Bft) 100,00 %
06.10.2021 21:50 11,9 C 11,1 C 11,1 C 96 % 1020,8 hPa 0,0 l/m 0 min 0 min 0 W/m 19,3 km/h (3 Bft) 100,00 %
06.10.2021 21:52 11,9 C 11,1 C 11,1 C 96 % 1020,8 hPa 0,0 l/m 0 min 0 min 0 W/m 6,4 km/h (2 Bft) 100,00 %
06.10.2021 21:54 11,9 C 11,1 C 11,1 C 96 % 1020,8 hPa 0,0 l/m 0 min 2 min 0 W/m 6,4 km/h (2 Bft) 100,00 %
06.10.2021 21:56 11,9 C 11,1 C 11,1 C 96 % 1020,9 hPa 0,2 l/m 0 min 2 min 0 W/m 6,4 km/h (2 Bft) 100,00 %
06.10.2021 21:58 11,9 C 11,1 C 11,1 C 96 % 1020,9 hPa 0,2 l/m 0 min 2 min 0 W/m 6,4 km/h (2 Bft) 97,87 %
06.10.2021 22:00 11,9 C 11,1 C 11,1 C 96 % 1020,9 hPa 0,0 l/m 0 min 0 min 0 W/m 6,4 km/h (2 Bft) 100,00 %
06.10.2021 22:02 11,9 C 11,1 C 11,1 C 96 % 1020,9 hPa 0,0 l/m 0 min 0 min 0 W/m 6,4 km/h (2 Bft) 97,87 %
06.10.2021 22:04 11,9 C 11,1 C 11,1 C 96 % 1021,0 hPa 0,0 l/m 0 min 0 min 0 W/m 6,4 km/h (2 Bft) 97,83 %
06.10.2021 22:06 11,9 C 11,1 C 11,1 C 96 % 1021,0 hPa 0,0 l/m 0 min 2 min 0 W/m 12,9 km/h (3 Bft) 100,00 %
06.10.2021 22:08 11,9 C 11,1 C 11,1 C 96 % 1021,0 hPa 0,0 l/m 0 min 0 min 0 W/m 16,1 km/h (3 Bft) 97,87 %
06.10.2021 22:10 11,9 C 11,1 C 11,1 C 96 % 1021,0 hPa 0,0 l/m 0 min 0 min 0 W/m 6,4 km/h (2 Bft) 100,00 %
06.10.2021 22:12 11,9 C 11,1 C 11,1 C 96 % 1021,1 hPa 0,0 l/m 0 min 0 min 0 W/m 3,2 km/h (1 Bft) 100,00 %
06.10.2021 22:14 11,9 C 11,1 C 11,1 C 96 % 1021,1 hPa 0,0 l/m 0 min 0 min 0 W/m 6,4 km/h (2 Bft) 100,00 %
06.10.2021 22:16 11,9 C 11,1 C 11,1 C 96 % 1021,1 hPa 0,0 l/m 0 min 0 min 0 W/m 12,9 km/h (3 Bft) 97,87 %
06.10.2021 22:18 11,9 C 11,1 C 11,1 C 96 % 1021,1 hPa 0,0 l/m 0 min 0 min 0 W/m 9,7 km/h (2 Bft) 100,00 %
06.10.2021 22:20 11,9 C 11,1 C 11,1 C 96 % 1021,2 hPa 0,0 l/m 0 min 0 min 0 W/m 6,4 km/h (2 Bft) 100,00 %
06.10.2021 22:22 11,9 C 11,1 C 11,1 C 96 % 1021,2 hPa 0,0 l/m 0 min 0 min 0 W/m 9,7 km/h (2 Bft) 100,00 %
06.10.2021 22:24 11,9 C 11,1 C 11,1 C 96 % 1021,2 hPa 0,0 l/m 0 min 0 min 0 W/m 6,4 km/h (2 Bft) 97,87 %
06.10.2021 22:26 11,9 C 11,1 C 11,1 C 96 % 1021,3 hPa 0,0 l/m 0 min 0 min 0 W/m 6,4 km/h (2 Bft) 100,00 %
06.10.2021 22:28 11,9 C 11,1 C 11,1 C 96 % 1021,3 hPa 0,0 l/m 0 min 0 min 0 W/m 6,4 km/h (2 Bft) 100,00 %
06.10.2021 22:30 11,9 C 11,1 C 11,1 C 96 % 1021,3 hPa 0,0 l/m 0 min 0 min 0 W/m 6,4 km/h (2 Bft) 97,83 %
06.10.2021 22:32 11,9 C 11,1 C 11,1 C 96 % 1021,3 hPa 0,0 l/m 0 min 0 min 0 W/m 6,4 km/h (2 Bft) 100,00 %
06.10.2021 22:34 11,9 C 11,1 C 11,1 C 96 % 1021,3 hPa 0,0 l/m 0 min 0 min 0 W/m 16,1 km/h (3 Bft) 97,87 %
06.10.2021 22:36 11,9 C 11,1 C 11,1 C 96 % 1021,3 hPa 0,0 l/m 0 min 0 min 0 W/m 6,4 km/h (2 Bft) 100,00 %
06.10.2021 22:38 11,9 C 11,1 C 11,1 C 96 % 1021,4 hPa 0,0 l/m 0 min 0 min 0 W/m 6,4 km/h (2 Bft) 97,87 %
06.10.2021 22:40 11,9 C 11,1 C 11,1 C 96 % 1021,4 hPa 0,0 l/m 0 min 0 min 0 W/m 6,4 km/h (2 Bft) 100,00 %
06.10.2021 22:42 11,9 C 11,1 C 11,1 C 96 % 1021,3 hPa 0,0 l/m 0 min 0 min 0 W/m 6,4 km/h (2 Bft) 95,74 %
06.10.2021 22:44 11,9 C 11,1 C 11,1 C 96 % 1021,4 hPa 0,0 l/m 0 min 0 min 0 W/m 12,9 km/h (3 Bft) 100,00 %
06.10.2021 22:46 11,9 C 11,1 C 11,1 C 96 % 1021,4 hPa 0,0 l/m 0 min 0 min 0 W/m 16,1 km/h (3 Bft) 100,00 %
06.10.2021 22:48 11,9 C 11,1 C 11,1 C 96 % 1021,4 hPa 0,0 l/m 0 min 0 min 0 W/m 6,4 km/h (2 Bft) 100,00 %
06.10.2021 22:50 11,9 C 11,1 C 11,1 C 96 % 1021,5 hPa 0,0 l/m 0 min 0 min 0 W/m 6,4 km/h (2 Bft) 100,00 %
06.10.2021 22:52 11,9 C 11,1 C 11,1 C 96 % 1021,4 hPa 0,0 l/m 0 min 0 min 0 W/m 6,4 km/h (2 Bft) 95,65 %
06.10.2021 22:54 11,9 C 11,1 C 11,1 C 96 % 1021,5 hPa 0,0 l/m 0 min 0 min 0 W/m 6,4 km/h (2 Bft) 97,87 %
06.10.2021 22:56 11,9 C 11,1 C 11,1 C 96 % 1021,4 hPa 0,0 l/m 0 min 0 min 0 W/m 3,2 km/h (1 Bft) 95,74 %
06.10.2021 22:58 11,9 C 11,1 C 11,1 C 96 % 1021,5 hPa 0,0 l/m 0 min 0 min 0 W/m 19,3 km/h (3 Bft) 95,74 %
06.10.2021 23:00 11,9 C 11,1 C 11,1 C 96 % 1021,5 hPa 0,0 l/m 0 min 0 min 0 W/m 12,9 km/h (3 Bft) 95,74 %
06.10.2021 23:02 11,9 C 11,1 C 11,1 C 96 % 1021,5 hPa 0,0 l/m 0 min 0 min 0 W/m 6,4 km/h (2 Bft) 95,74 %
06.10.2021 23:04 11,9 C 11,1 C 11,1 C 96 % 1021,5 hPa 0,0 l/m 0 min 0 min 0 W/m 9,7 km/h (2 Bft) 93,48 %
06.10.2021 23:06 11,9 C 11,1 C 11,1 C 96 % 1021,6 hPa 0,0 l/m 0 min 0 min 0 W/m 6,4 km/h (2 Bft) 95,74 %
06.10.2021 23:08 11,9 C 11,1 C 11,1 C 96 % 1021,5 hPa 0,0 l/m 0 min 0 min 0 W/m 6,4 km/h (2 Bft) 95,74 %
06.10.2021 23:10 11,9 C 11,1 C 11,1 C 96 % 1021,6 hPa 0,0 l/m 0 min 0 min 0 W/m 6,4 km/h (2 Bft) 91,49 %
06.10.2021 23:12 11,9 C 11,1 C 11,1 C 96 % 1021,6 hPa 0,0 l/m 0 min 0 min 0 W/m 6,4 km/h (2 Bft) 95,74 %
06.10.2021 23:14 11,9 C 11,1 C 11,1 C 96 % 1021,6 hPa 0,0 l/m 0 min 0 min 0 W/m 6,4 km/h (2 Bft) 95,74 %
06.10.2021 23:16 11,9 C 11,1 C 11,1 C 97 % 1021,7 hPa 0,0 l/m 0 min 0 min 0 W/m 12,9 km/h (3 Bft) 95,65 %
06.10.2021 23:18 11,9 C 11,1 C 11,1 C 97 % 1021,6 hPa 0,0 l/m 0 min 0 min 0 W/m 6,4 km/h (2 Bft) 94,59 %
06.10.2021 23:20 11,9 C 11,1 C 11,1 C 97 % 1021,7 hPa 0,0 l/m 0 min 0 min 0 W/m 12,9 km/h (3 Bft) 94,83 %
06.10.2021 23:22 11,9 C 11,1 C 11,1 C 97 % 1021,7 hPa 0,0 l/m 0 min 0 min 0 W/m 12,9 km/h (3 Bft) 95,74 %
06.10.2021 23:24 11,9 C 11,1 C 11,1 C 96 % 1021,7 hPa 0,0 l/m 0 min 0 min 0 W/m 6,4 km/h (2 Bft) 94,29 %
06.10.2021 23:26 11,9 C 11,1 C 11,1 C 96 % 1021,7 hPa 0,0 l/m 0 min 0 min 0 W/m 3,2 km/h (1 Bft) 95,74 %
06.10.2021 23:28 11,9 C 11,1 C 11,1 C 96 % 1021,7 hPa 0,0 l/m 0 min 0 min 0 W/m 9,7 km/h (2 Bft) 94,74 %
06.10.2021 23:30 11,9 C 11,1 C 11,1 C 96 % 1021,6 hPa 0,0 l/m 0 min 0 min 0 W/m 6,4 km/h (2 Bft) 97,87 %
06.10.2021 23:32 11,9 C 11,1 C 11,1 C 96 % 1021,7 hPa 0,0 l/m 0 min 0 min 0 W/m 9,7 km/h (2 Bft) 95,74 %
06.10.2021 23:34 11,9 C 11,1 C 11,1 C 96 % 1021,7 hPa 0,0 l/m 0 min 0 min 0 W/m 6,4 km/h (2 Bft) 97,87 %
06.10.2021 23:36 11,9 C 11,1 C 11,1 C 96 % 1021,7 hPa 0,0 l/m 0 min 0 min 0 W/m 6,4 km/h (2 Bft) 97,87 %
06.10.2021 23:38 11,9 C 11,1 C 11,1 C 96 % 1021,8 hPa 0,0 l/m 0 min 0 min 0 W/m 12,9 km/h (3 Bft) 97,87 %
06.10.2021 23:40 11,9 C 11,1 C 11,1 C 97 % 1021,8 hPa 0,0 l/m 0 min 0 min 0 W/m 12,9 km/h (3 Bft) 95,65 %
06.10.2021 23:42 11,9 C 11,1 C 11,1 C 97 % 1021,8 hPa 0,0 l/m 0 min 0 min 0 W/m 6,4 km/h (2 Bft) 95,74 %
06.10.2021 23:44 11,9 C 11,1 C 11,1 C 97 % 1021,8 hPa 0,0 l/m 0 min 0 min 0 W/m 6,4 km/h (2 Bft) 95,74 %
06.10.2021 23:46 11,9 C 11,1 C 11,1 C 97 % 1021,8 hPa 0,0 l/m 0 min 0 min 0 W/m 9,7 km/h (2 Bft) 95,74 %
06.10.2021 23:48 11,9 C 11,1 C 11,1 C 97 % 1021,9 hPa 0,0 l/m 0 min 0 min 0 W/m 12,9 km/h (3 Bft) 95,74 %
06.10.2021 23:50 11,9 C 11,1 C 11,1 C 97 % 1021,9 hPa 0,0 l/m 0 min 0 min 0 W/m 6,4 km/h (2 Bft) 97,87 %
06.10.2021 23:52 11,9 C 11,1 C 11,1 C 97 % 1021,9 hPa 0,0 l/m 0 min 0 min 0 W/m 6,4 km/h (2 Bft) 97,83 %
06.10.2021 23:54 11,9 C 11,1 C 11,1 C 97 % 1021,9 hPa 0,0 l/m 0 min 0 min 0 W/m 6,4 km/h (2 Bft) 54,35 %
06.10.2021 23:56 11,9 C 11,1 C 11,1 C 97 % 1022,0 hPa 0,0 l/m 0 min 0 min 0 W/m 6,4 km/h (2 Bft) 97,87 %
06.10.2021 23:58 11,9 C 11,1 C 11,1 C 97 % 1022,0 hPa 0,0 l/m 0 min 0 min 0 W/m 3,2 km/h (1 Bft) 93,62 %
_ Min-Zeit 08:46 08:34 08:08 07:22 00:00 - - - - 21:20 23:54
Minimum _ 10,5 C 9,4 C 8,4 C 85 % 1008,6 hPa - - - - 3,2 km/h (1 Bft) 54,35 %
_ Max-Zeit 14:52 14:08 17:12 23:16 23:56 08:00 00:00 12:08 14:18 05:24 00:08
Maximum _ 12,5 C 12,2 C 11,1 C 97 % 1022,0 hPa 0,2 l/m 0 min 4 min 237 W/m 51,5 km/h
S (7 Bft)
100,00 %
Durchschnitt _ 11,6 C 11,0 C 10,2 C 92 % 1014,3 hPa #2,8 l/m #0 min. #6:06 h 81 W/m 20,8 km/h (4 Bft) 97,44 %
© 2021 W. Hausmann